Wetterdaten: Montag, 14.06.2010
Datum Zeit Temp. Innen Temp. Aussen UV X Diff Temp. Feuchte Inne Feuchte Auss Sonnenschein Luftdruck Regen ab 0,1 Wind Sonnenschein Windben
14.06.2010 00:00 20,4 C 14,1 C 0,0 UV-I 0,0 C 50 % 71 % 0 % 1014,6 hPa 0,0 l/m 0,0 km/h (0 Bft) 0 min 0,0 km/h (0 Bft)
14.06.2010 00:05 20,2 C 14,1 C 0,0 UV-I 0,0 C 50 % 71 % 0 % 1014,6 hPa 0,0 l/m 0,0 km/h (0 Bft) 0 min 0,0 km/h (0 Bft)
14.06.2010 00:10 20,2 C 14,0 C 0,0 UV-I 0,0 C 50 % 71 % 0 % 1014,6 hPa 0,0 l/m 0,0 km/h (0 Bft) 0 min 0,0 km/h (0 Bft)
14.06.2010 00:15 20,3 C 14,1 C 0,0 UV-I 0,0 C 50 % 71 % 0 % 1014,4 hPa 0,0 l/m 0,0 km/h (0 Bft) 0 min 0,0 km/h (0 Bft)
14.06.2010 00:20 20,3 C 14,1 C 0,0 UV-I 0,0 C 50 % 71 % 0 % 1014,4 hPa 0,0 l/m 0,0 km/h (0 Bft) 0 min 0,0 km/h (0 Bft)
14.06.2010 00:25 20,2 C 14,0 C 0,0 UV-I 0,0 C 50 % 72 % 0 % 1014,4 hPa 0,0 l/m 0,0 km/h (0 Bft) 0 min 0,0 km/h (0 Bft)
14.06.2010 00:30 20,2 C 13,9 C 0,0 UV-I 0,0 C 51 % 72 % 0 % 1014,4 hPa 0,0 l/m 0,0 km/h (0 Bft) 0 min 0,0 km/h (0 Bft)
14.06.2010 00:35 20,2 C 13,9 C 0,0 UV-I 0,0 C 51 % 72 % 0 % 1014,6 hPa 0,0 l/m 0,8 km/h (0 Bft) 0 min 3,5 km/h (1 Bft)
14.06.2010 00:40 20,1 C 13,9 C 0,0 UV-I 0,0 C 51 % 73 % 0 % 1014,6 hPa 0,0 l/m 1,2 km/h (1 Bft) 0 min 6,4 km/h (2 Bft)
14.06.2010 00:45 20,1 C 13,7 C 0,0 UV-I 0,0 C 51 % 73 % 0 % 1014,6 hPa 0,0 l/m 0,8 km/h (0 Bft) 0 min 0,0 km/h (0 Bft)
14.06.2010 00:50 20,0 C 13,6 C 0,0 UV-I 0,0 C 51 % 73 % 0 % 1014,6 hPa 0,0 l/m 0,0 km/h (0 Bft) 0 min 0,0 km/h (0 Bft)
14.06.2010 00:55 20,0 C 13,5 C 0,0 UV-I 0,0 C 51 % 73 % 0 % 1014,6 hPa 0,0 l/m 0,0 km/h (0 Bft) 0 min 0,0 km/h (0 Bft)
14.06.2010 01:00 20,0 C 13,3 C 0,0 UV-I 0,0 C 51 % 74 % 0 % 1014,6 hPa 0,0 l/m 0,0 km/h (0 Bft) 0 min 0,0 km/h (0 Bft)
14.06.2010 01:05 20,0 C 13,2 C 0,0 UV-I 0,0 C 51 % 74 % 0 % 1014,6 hPa 0,0 l/m 0,0 km/h (0 Bft) 0 min 0,0 km/h (0 Bft)
14.06.2010 01:10 19,9 C 13,2 C 0,0 UV-I 0,0 C 51 % 75 % 0 % 1014,6 hPa 0,0 l/m 0,0 km/h (0 Bft) 0 min 0,0 km/h (0 Bft)
14.06.2010 01:15 19,9 C 13,2 C 0,0 UV-I 0,0 C 51 % 75 % 0 % 1014,4 hPa 0,0 l/m 0,0 km/h (0 Bft) 0 min 0,0 km/h (0 Bft)
14.06.2010 01:20 19,8 C 13,1 C 0,0 UV-I 0,0 C 51 % 76 % 0 % 1014,4 hPa 0,0 l/m 0,0 km/h (0 Bft) 0 min 0,0 km/h (0 Bft)
14.06.2010 01:25 19,8 C 13,0 C 0,1 UV-I 0,0 C 51 % 76 % 0 % 1014,4 hPa 0,0 l/m 0,0 km/h (0 Bft) 0 min 0,0 km/h (0 Bft)
14.06.2010 01:30 19,8 C 12,9 C 0,0 UV-I 0,0 C 52 % 76 % 0 % 1014,4 hPa 0,0 l/m 0,0 km/h (0 Bft) 0 min 0,0 km/h (0 Bft)
14.06.2010 01:35 19,7 C 12,8 C 0,0 UV-I 0,0 C 52 % 77 % 0 % 1014,4 hPa 0,0 l/m 0,0 km/h (0 Bft) 0 min 0,0 km/h (0 Bft)
14.06.2010 01:38 19,7 C 12,7 C 0,0 UV-I 0,0 C 52 % 77 % 0 % 1014,4 hPa 0,0 l/m 0,0 km/h (0 Bft) 0 min 0,0 km/h (0 Bft)
14.06.2010 01:43 19,7 C 12,5 C 0,0 UV-I 0,0 C 52 % 77 % 0 % 1014,4 hPa 0,0 l/m 0,0 km/h (0 Bft) 0 min 0,0 km/h (0 Bft)
14.06.2010 01:48 19,6 C 12,5 C 0,0 UV-I 0,0 C 52 % 78 % 0 % 1014,4 hPa 0,0 l/m 0,0 km/h (0 Bft) 0 min 0,0 km/h (0 Bft)
14.06.2010 01:53 19,6 C 12,3 C 0,0 UV-I 0,0 C 52 % 78 % 0 % 1014,4 hPa 0,0 l/m 0,0 km/h (0 Bft) 0 min 0,0 km/h (0 Bft)
14.06.2010 01:58 19,6 C 12,3 C 0,0 UV-I 0,0 C 52 % 79 % 0 % 1014,4 hPa 0,0 l/m 0,0 km/h (0 Bft) 0 min 0,0 km/h (0 Bft)
14.06.2010 02:03 19,6 C 12,2 C 0,0 UV-I 0,0 C 52 % 79 % 0 % 1014,4 hPa 0,0 l/m 0,0 km/h (0 Bft) 0 min 0,0 km/h (0 Bft)
14.06.2010 02:08 19,6 C 12,1 C 0,0 UV-I 0,0 C 52 % 80 % 0 % 1014,4 hPa 0,0 l/m 0,0 km/h (0 Bft) 0 min 0,0 km/h (0 Bft)
14.06.2010 02:13 19,6 C 12,0 C 0,1 UV-I 0,0 C 52 % 80 % 0 % 1014,6 hPa 0,0 l/m 0,0 km/h (0 Bft) 0 min 0,0 km/h (0 Bft)
14.06.2010 02:18 19,6 C 12,0 C 0,1 UV-I 0,0 C 52 % 80 % 0 % 1014,6 hPa 0,0 l/m 0,0 km/h (0 Bft) 0 min 0,0 km/h (0 Bft)
14.06.2010 02:23 19,6 C 12,0 C 0,1 UV-I 0,0 C 52 % 80 % 0 % 1014,6 hPa 0,0 l/m 0,0 km/h (0 Bft) 0 min 0,0 km/h (0 Bft)
14.06.2010 02:28 19,5 C 12,0 C 0,0 UV-I 0,0 C 52 % 80 % 0 % 1014,6 hPa 0,0 l/m 0,0 km/h (0 Bft) 0 min 0,0 km/h (0 Bft)
14.06.2010 02:33 19,5 C 11,9 C 0,1 UV-I 0,0 C 52 % 80 % 0 % 1014,4 hPa 0,0 l/m 0,0 km/h (0 Bft) 0 min 0,0 km/h (0 Bft)
14.06.2010 02:38 19,5 C 11,9 C 0,1 UV-I 0,0 C 52 % 81 % 0 % 1014,4 hPa 0,0 l/m 0,0 km/h (0 Bft) 0 min 0,0 km/h (0 Bft)
14.06.2010 02:43 19,4 C 11,8 C 0,1 UV-I 0,0 C 52 % 80 % 0 % 1014,4 hPa 0,0 l/m 0,0 km/h (0 Bft) 0 min 0,0 km/h (0 Bft)
14.06.2010 02:48 19,4 C 11,8 C 0,1 UV-I 0,0 C 52 % 81 % 0 % 1014,4 hPa 0,0 l/m 0,0 km/h (0 Bft) 0 min 0,0 km/h (0 Bft)
14.06.2010 02:53 19,4 C 11,8 C 0,1 UV-I 0,0 C 52 % 81 % 0 % 1014,4 hPa 0,0 l/m 0,0 km/h (0 Bft) 0 min 0,0 km/h (0 Bft)
14.06.2010 02:58 19,4 C 11,8 C 0,1 UV-I 0,0 C 53 % 81 % 0 % 1014,4 hPa 0,0 l/m 0,0 km/h (0 Bft) 0 min 0,0 km/h (0 Bft)
14.06.2010 03:03 19,4 C 11,8 C 0,1 UV-I 0,0 C 53 % 81 % 0 % 1014,4 hPa 0,0 l/m 0,0 km/h (0 Bft) 0 min 0,0 km/h (0 Bft)
14.06.2010 03:08 19,2 C 11,8 C 0,1 UV-I 0,0 C 53 % 82 % 0 % 1014,4 hPa 0,0 l/m 0,0 km/h (0 Bft) 0 min 0,0 km/h (0 Bft)
14.06.2010 03:13 19,2 C 11,9 C 0,1 UV-I 0,0 C 53 % 82 % 0 % 1014,3 hPa 0,0 l/m 0,0 km/h (0 Bft) 0 min 0,0 km/h (0 Bft)
14.06.2010 03:18 19,2 C 11,9 C 0,1 UV-I 0,0 C 53 % 82 % 0 % 1014,3 hPa 0,0 l/m 0,0 km/h (0 Bft) 0 min 0,0 km/h (0 Bft)
14.06.2010 03:23 19,3 C 11,9 C 0,1 UV-I 0,0 C 53 % 82 % 0 % 1014,3 hPa 0,0 l/m 0,0 km/h (0 Bft) 0 min 0,0 km/h (0 Bft)
14.06.2010 03:28 19,2 C 12,0 C 0,1 UV-I 0,0 C 53 % 82 % 0 % 1014,3 hPa 0,0 l/m 0,0 km/h (0 Bft) 0 min 0,0 km/h (0 Bft)
14.06.2010 03:33 19,2 C 12,0 C 0,1 UV-I 0,0 C 53 % 82 % 0 % 1014,4 hPa 0,0 l/m 0,0 km/h (0 Bft) 0 min 0,0 km/h (0 Bft)
14.06.2010 03:38 19,2 C 12,1 C 0,1 UV-I 0,0 C 53 % 82 % 0 % 1014,4 hPa 0,0 l/m 0,0 km/h (0 Bft) 0 min 0,0 km/h (0 Bft)
14.06.2010 03:43 19,2 C 12,0 C 0,1 UV-I 0,0 C 53 % 82 % 0 % 1014,4 hPa 0,0 l/m 0,0 km/h (0 Bft) 0 min 0,0 km/h (0 Bft)
14.06.2010 03:48 19,2 C 12,1 C 0,1 UV-I 0,0 C 53 % 82 % 0 % 1014,4 hPa 0,0 l/m 0,0 km/h (0 Bft) 0 min 0,0 km/h (0 Bft)
14.06.2010 03:53 19,2 C 12,0 C 0,1 UV-I 0,0 C 53 % 82 % 0 % 1014,1 hPa 0,0 l/m 0,0 km/h (0 Bft) 0 min 0,0 km/h (0 Bft)
14.06.2010 03:58 19,2 C 12,0 C 0,1 UV-I 0,0 C 53 % 82 % 0 % 1014,1 hPa 0,0 l/m 0,4 km/h (0 Bft) 0 min 0,0 km/h (0 Bft)
14.06.2010 04:03 19,2 C 12,0 C 0,1 UV-I 0,0 C 53 % 82 % 0 % 1014,1 hPa 0,0 l/m 0,4 km/h (0 Bft) 0 min 0,0 km/h (0 Bft)
14.06.2010 04:08 19,2 C 12,0 C 0,1 UV-I 0,0 C 54 % 82 % 0 % 1014,1 hPa 0,0 l/m 0,0 km/h (0 Bft) 0 min 0,0 km/h (0 Bft)
14.06.2010 04:13 19,1 C 12,0 C 0,1 UV-I 0,0 C 54 % 82 % 0 % 1014,2 hPa 0,0 l/m 0,0 km/h (0 Bft) 0 min 0,0 km/h (0 Bft)
14.06.2010 04:18 19,1 C 12,0 C 0,1 UV-I 0,0 C 54 % 82 % 0 % 1014,2 hPa 0,0 l/m 0,0 km/h (0 Bft) 0 min 0,0 km/h (0 Bft)
14.06.2010 04:23 19,1 C 12,1 C 0,1 UV-I 0,0 C 54 % 83 % 0 % 1014,2 hPa 0,0 l/m 0,0 km/h (0 Bft) 0 min 0,0 km/h (0 Bft)
14.06.2010 04:28 19,1 C 12,1 C 0,1 UV-I 0,0 C 54 % 83 % 0 % 1014,2 hPa 0,0 l/m 0,0 km/h (0 Bft) 0 min 0,0 km/h (0 Bft)
14.06.2010 04:33 19,1 C 12,1 C 0,1 UV-I 0,0 C 54 % 82 % 0 % 1014,2 hPa 0,0 l/m 0,0 km/h (0 Bft) 0 min 0,0 km/h (0 Bft)
14.06.2010 04:38 19,1 C 12,3 C 0,0 UV-I 0,0 C 54 % 82 % 0 % 1014,2 hPa 0,0 l/m 0,0 km/h (0 Bft) 0 min 0,0 km/h (0 Bft)
14.06.2010 04:43 19,1 C 12,3 C 0,1 UV-I 0,0 C 54 % 82 % 0 % 1014,2 hPa 0,0 l/m 0,0 km/h (0 Bft) 0 min 0,0 km/h (0 Bft)
14.06.2010 04:48 19,1 C 12,3 C 0,1 UV-I 0,0 C 54 % 82 % 0 % 1014,2 hPa 0,0 l/m 0,0 km/h (0 Bft) 0 min 0,0 km/h (0 Bft)
14.06.2010 04:53 19,1 C 12,3 C 0,0 UV-I 0,0 C 54 % 82 % 0 % 1014,1 hPa 0,0 l/m 0,0 km/h (0 Bft) 0 min 0,0 km/h (0 Bft)
14.06.2010 04:58 19,0 C 12,3 C 0,0 UV-I 0,0 C 54 % 82 % 0 % 1014,1 hPa 0,0 l/m 0,0 km/h (0 Bft) 0 min 0,0 km/h (0 Bft)
14.06.2010 05:03 19,1 C 12,3 C 0,1 UV-I 0,0 C 54 % 82 % 0 % 1014,1 hPa 0,0 l/m 0,0 km/h (0 Bft) 0 min 0,0 km/h (0 Bft)
14.06.2010 05:08 19,0 C 12,3 C 0,1 UV-I 0,0 C 54 % 82 % 0 % 1014,1 hPa 0,0 l/m 0,0 km/h (0 Bft) 0 min 0,0 km/h (0 Bft)
14.06.2010 05:13 19,0 C 12,3 C 0,1 UV-I 0,0 C 54 % 82 % 0 % 1014,0 hPa 0,0 l/m 0,0 km/h (0 Bft) 0 min 0,0 km/h (0 Bft)
14.06.2010 05:18 19,0 C 12,3 C 0,1 UV-I 0,0 C 54 % 82 % 0 % 1014,0 hPa 0,0 l/m 0,0 km/h (0 Bft) 0 min 0,0 km/h (0 Bft)
14.06.2010 05:23 19,0 C 12,1 C 0,1 UV-I 0,0 C 54 % 82 % 0 % 1014,0 hPa 0,0 l/m 0,0 km/h (0 Bft) 0 min 0,0 km/h (0 Bft)
14.06.2010 05:28 19,0 C 12,0 C 0,1 UV-I 0,0 C 55 % 82 % 0 % 1014,0 hPa 0,0 l/m 0,0 km/h (0 Bft) 0 min 0,0 km/h (0 Bft)
14.06.2010 05:33 19,0 C 12,0 C 0,2 UV-I 0,0 C 55 % 82 % 0 % 1014,1 hPa 0,0 l/m 0,0 km/h (0 Bft) 0 min 0,0 km/h (0 Bft)
14.06.2010 05:38 19,0 C 11,9 C 0,2 UV-I 0,0 C 55 % 83 % 0 % 1014,1 hPa 0,0 l/m 0,0 km/h (0 Bft) 0 min 0,0 km/h (0 Bft)
14.06.2010 05:43 19,0 C 11,9 C 0,2 UV-I 0,0 C 55 % 83 % 0 % 1014,1 hPa 0,0 l/m 0,0 km/h (0 Bft) 0 min 0,0 km/h (0 Bft)
14.06.2010 05:48 19,0 C 11,8 C 0,3 UV-I 0,0 C 55 % 83 % 0 % 1014,1 hPa 0,0 l/m 0,0 km/h (0 Bft) 0 min 0,0 km/h (0 Bft)
14.06.2010 05:53 18,9 C 11,8 C 0,4 UV-I 0,0 C 55 % 83 % 0 % 1013,9 hPa 0,0 l/m 0,0 km/h (0 Bft) 0 min 0,0 km/h (0 Bft)
14.06.2010 05:58 18,9 C 11,7 C 0,4 UV-I 0,0 C 55 % 84 % 0 % 1013,9 hPa 0,0 l/m 0,0 km/h (0 Bft) 0 min 0,0 km/h (0 Bft)
14.06.2010 06:01 18,9 C 11,7 C 0,4 UV-I 0,0 C 55 % 84 % 0 % 1013,9 hPa 0,0 l/m 0,0 km/h (0 Bft) 0 min 0,0 km/h (0 Bft)
14.06.2010 06:05 18,9 C 11,7 C 0,4 UV-I 0,0 C 55 % 84 % 0 % 1013,9 hPa 0,0 l/m 0,0 km/h (0 Bft) 0 min 0,0 km/h (0 Bft)
14.06.2010 06:10 18,9 C 11,8 C 0,5 UV-I 0,0 C 55 % 84 % 0 % 1013,9 hPa 0,0 l/m 0,0 km/h (0 Bft) 0 min 0,0 km/h (0 Bft)
14.06.2010 06:15 19,0 C 11,9 C 0,6 UV-I 0,0 C 55 % 84 % 0 % 1014,4 hPa 0,0 l/m 0,0 km/h (0 Bft) 0 min 0,0 km/h (0 Bft)
14.06.2010 06:20 19,0 C 12,0 C 0,7 UV-I 0,0 C 55 % 84 % 0 % 1014,4 hPa 0,0 l/m 0,0 km/h (0 Bft) 0 min 0,0 km/h (0 Bft)
14.06.2010 06:25 19,0 C 12,1 C 0,8 UV-I 0,0 C 55 % 84 % 0 % 1014,4 hPa 0,0 l/m 0,0 km/h (0 Bft) 0 min 0,0 km/h (0 Bft)
14.06.2010 06:30 19,1 C 12,1 C 0,9 UV-I 0,0 C 55 % 84 % 0 % 1014,4 hPa 0,0 l/m 0,0 km/h (0 Bft) 0 min 0,0 km/h (0 Bft)
14.06.2010 06:35 19,2 C 12,0 C 1,0 UV-I 0,0 C 55 % 84 % 0 % 1014,8 hPa 0,0 l/m 0,0 km/h (0 Bft) 0 min 0,0 km/h (0 Bft)
14.06.2010 06:40 19,2 C 12,1 C 1,2 UV-I 0,0 C 55 % 84 % 0 % 1014,8 hPa 0,0 l/m 0,0 km/h (0 Bft) 0 min 0,0 km/h (0 Bft)
14.06.2010 06:45 19,2 C 12,1 C 1,3 UV-I 0,0 C 55 % 84 % 0 % 1014,8 hPa 0,0 l/m 0,0 km/h (0 Bft) 0 min 0,0 km/h (0 Bft)
14.06.2010 06:50 19,2 C 12,0 C 1,4 UV-I 0,0 C 55 % 84 % 0 % 1014,8 hPa 0,0 l/m 0,0 km/h (0 Bft) 0 min 0,0 km/h (0 Bft)
14.06.2010 06:55 19,2 C 12,1 C 1,5 UV-I 0,0 C 55 % 84 % 0 % 1014,6 hPa 0,0 l/m 0,0 km/h (0 Bft) 0 min 0,0 km/h (0 Bft)
14.06.2010 07:00 19,3 C 12,3 C 1,7 UV-I 0,0 C 55 % 84 % 0 % 1014,6 hPa 0,0 l/m 0,4 km/h (0 Bft) 0 min 0,0 km/h (0 Bft)
14.06.2010 07:05 19,3 C 12,4 C 1,8 UV-I 0,0 C 55 % 84 % 0 % 1014,6 hPa 0,0 l/m 0,4 km/h (0 Bft) 0 min 0,0 km/h (0 Bft)
14.06.2010 07:15 19,4 C 12,7 C 2,0 UV-I 0,0 C 55 % 83 % 0 % 1014,6 hPa 0,0 l/m 0,0 km/h (0 Bft) 0 min 0,0 km/h (0 Bft)
14.06.2010 07:20 19,4 C 12,7 C 2,0 UV-I 0,0 C 55 % 82 % 0 % 1014,6 hPa 0,0 l/m 1,6 km/h (1 Bft) 0 min 7,7 km/h (2 Bft)
14.06.2010 07:25 19,4 C 12,8 C 2,1 UV-I 0,0 C 55 % 82 % 0 % 1014,6 hPa 0,0 l/m 2,0 km/h (1 Bft) 0 min 0,0 km/h (0 Bft)
14.06.2010 07:30 19,4 C 12,9 C 2,2 UV-I 0,0 C 55 % 82 % 0 % 1014,6 hPa 0,0 l/m 2,0 km/h (1 Bft) 0 min 6,4 km/h (2 Bft)
14.06.2010 07:40 19,5 C 13,3 C 2,5 UV-I 0,0 C 55 % 82 % 0 % 1014,6 hPa 0,0 l/m 0,0 km/h (0 Bft) 0 min 5,5 km/h (1 Bft)
14.06.2010 07:45 19,4 C 13,3 C 2,7 UV-I 0,0 C 55 % 82 % 0 % 1014,6 hPa 0,0 l/m 0,8 km/h (0 Bft) 0 min 0,0 km/h (0 Bft)
14.06.2010 07:50 19,4 C 13,6 C 2,7 UV-I 0,0 C 55 % 81 % 0 % 1014,6 hPa 0,0 l/m 2,0 km/h (1 Bft) 0 min 7,1 km/h (2 Bft)
14.06.2010 07:55 19,5 C 13,6 C 2,9 UV-I 0,0 C 55 % 80 % 0 % 1014,8 hPa 0,0 l/m 3,2 km/h (1 Bft) 0 min 8,7 km/h (2 Bft)
14.06.2010 08:00 19,5 C 13,9 C 3,0 UV-I 0,0 C 55 % 80 % 0 % 1014,8 hPa 0,0 l/m 2,8 km/h (1 Bft) 0 min 10,0 km/h (2 Bft)
14.06.2010 08:05 19,5 C 14,0 C 3,1 UV-I 0,2 C 55 % 79 % 6 % 1014,8 hPa 0,0 l/m 2,4 km/h (1 Bft) 0 min 0,0 km/h (0 Bft)
14.06.2010 08:15 19,6 C 14,3 C 3,4 UV-I 4,0 C 55 % 79 % 100 % 1015,0 hPa 0,0 l/m 1,6 km/h (1 Bft) 2 min 0,0 km/h (0 Bft)
14.06.2010 08:20 19,6 C 14,4 C 3,4 UV-I 5,0 C 55 % 78 % 100 % 1015,0 hPa 0,0 l/m 3,2 km/h (1 Bft) 2 min 7,7 km/h (2 Bft)
14.06.2010 08:25 19,6 C 14,7 C 3,5 UV-I 5,3 C 55 % 78 % 100 % 1015,0 hPa 0,0 l/m 3,6 km/h (1 Bft) 2 min 11,3 km/h (2 Bft)
14.06.2010 08:30 19,6 C 14,8 C 3,9 UV-I 5,6 C 55 % 77 % 100 % 1015,0 hPa 0,0 l/m 4,4 km/h (1 Bft) 2 min 3,2 km/h (1 Bft)
14.06.2010 08:35 19,6 C 15,1 C 4,5 UV-I 5,4 C 55 % 77 % 100 % 1015,3 hPa 0,0 l/m 4,8 km/h (1 Bft) 2 min 12,9 km/h (3 Bft)
14.06.2010 08:38 19,6 C 15,4 C 4,9 UV-I 5,4 C 55 % 76 % 100 % 1015,3 hPa 0,0 l/m 4,8 km/h (1 Bft) 2 min 0,0 km/h (0 Bft)
14.06.2010 08:42 19,7 C 15,6 C 5,3 UV-I 5,4 C 55 % 75 % 100 % 1015,3 hPa 0,0 l/m 4,4 km/h (1 Bft) 2 min 4,2 km/h (1 Bft)
14.06.2010 08:44 19,6 C 15,6 C 5,3 UV-I 5,6 C 55 % 74 % 100 % 1015,3 hPa 0,0 l/m 3,6 km/h (1 Bft) 2 min 6,1 km/h (2 Bft)
14.06.2010 08:46 19,7 C 15,8 C 5,8 UV-I 5,7 C 55 % 74 % 100 % 1015,3 hPa 0,0 l/m 3,6 km/h (1 Bft) 2 min 3,2 km/h (1 Bft)
14.06.2010 08:48 19,7 C 15,9 C 5,8 UV-I 5,8 C 55 % 74 % 100 % 1015,3 hPa 0,0 l/m 3,6 km/h (1 Bft) 2 min 7,4 km/h (2 Bft)
14.06.2010 08:50 19,7 C 16,1 C 5,8 UV-I 5,6 C 55 % 73 % 100 % 1015,3 hPa 0,0 l/m 3,6 km/h (1 Bft) 2 min 7,4 km/h (2 Bft)
14.06.2010 08:52 19,7 C 16,1 C 6,5 UV-I 5,8 C 55 % 72 % 100 % 1015,6 hPa 0,0 l/m 3,6 km/h (1 Bft) 2 min 3,9 km/h (1 Bft)
14.06.2010 08:54 19,7 C 16,2 C 6,5 UV-I 5,9 C 55 % 72 % 100 % 1015,6 hPa 0,0 l/m 4,0 km/h (1 Bft) 2 min 0,0 km/h (0 Bft)
14.06.2010 08:56 19,7 C 16,4 C 7,3 UV-I 5,9 C 55 % 72 % 100 % 1015,6 hPa 0,0 l/m 3,6 km/h (1 Bft) 2 min 7,7 km/h (2 Bft)
14.06.2010 08:58 19,7 C 16,4 C 7,3 UV-I 6,0 C 55 % 72 % 100 % 1015,6 hPa 0,0 l/m 4,0 km/h (1 Bft) 2 min 3,5 km/h (1 Bft)
14.06.2010 09:00 19,7 C 16,5 C 7,3 UV-I 6,0 C 55 % 70 % 100 % 1015,6 hPa 0,0 l/m 4,0 km/h (1 Bft) 2 min 9,7 km/h (2 Bft)
14.06.2010 09:02 19,7 C 16,7 C 8,1 UV-I 5,8 C 55 % 70 % 100 % 1015,6 hPa 0,0 l/m 3,6 km/h (1 Bft) 2 min 3,2 km/h (1 Bft)
14.06.2010 09:04 19,7 C 16,7 C 8,1 UV-I 5,8 C 55 % 70 % 100 % 1015,6 hPa 0,0 l/m 4,8 km/h (1 Bft) 2 min 6,4 km/h (2 Bft)
14.06.2010 09:06 19,7 C 16,8 C 8,8 UV-I 5,6 C 55 % 70 % 100 % 1015,6 hPa 0,0 l/m 4,8 km/h (1 Bft) 2 min 0,0 km/h (0 Bft)
14.06.2010 09:08 19,7 C 16,9 C 8,8 UV-I 5,6 C 55 % 70 % 100 % 1015,6 hPa 0,0 l/m 4,8 km/h (1 Bft) 2 min 0,0 km/h (0 Bft)
14.06.2010 09:10 19,7 C 17,1 C 8,8 UV-I 5,4 C 55 % 69 % 100 % 1015,6 hPa 0,0 l/m 4,8 km/h (1 Bft) 2 min 0,0 km/h (0 Bft)
14.06.2010 09:12 19,7 C 17,1 C 9,5 UV-I 5,8 C 55 % 69 % 100 % 1015,4 hPa 0,0 l/m 4,8 km/h (1 Bft) 2 min 15,4 km/h (3 Bft)
14.06.2010 09:14 19,8 C 17,2 C 9,5 UV-I 5,6 C 55 % 68 % 100 % 1015,4 hPa 0,0 l/m 4,4 km/h (1 Bft) 2 min 0,0 km/h (0 Bft)
14.06.2010 09:16 19,7 C 17,2 C 10,5 UV-I 5,7 C 55 % 69 % 100 % 1015,4 hPa 0,0 l/m 3,6 km/h (1 Bft) 2 min 0,0 km/h (0 Bft)
14.06.2010 09:18 19,8 C 17,3 C 10,5 UV-I 6,0 C 55 % 69 % 100 % 1015,4 hPa 0,0 l/m 3,2 km/h (1 Bft) 2 min 0,0 km/h (0 Bft)
14.06.2010 09:20 19,8 C 17,5 C 10,5 UV-I 6,1 C 55 % 68 % 100 % 1015,4 hPa 0,0 l/m 3,6 km/h (1 Bft) 2 min 15,4 km/h (3 Bft)
14.06.2010 09:22 19,8 C 17,5 C 11,3 UV-I 6,0 C 55 % 67 % 100 % 1015,4 hPa 0,0 l/m 4,0 km/h (1 Bft) 2 min 10,9 km/h (2 Bft)
14.06.2010 09:24 19,8 C 17,6 C 11,3 UV-I 5,7 C 55 % 66 % 100 % 1015,4 hPa 0,0 l/m 3,6 km/h (1 Bft) 2 min 6,1 km/h (2 Bft)
14.06.2010 09:26 19,8 C 17,6 C 12,6 UV-I 5,6 C 55 % 66 % 100 % 1015,4 hPa 0,0 l/m 4,4 km/h (1 Bft) 2 min 0,0 km/h (0 Bft)
14.06.2010 09:28 19,8 C 17,7 C 12,6 UV-I 5,7 C 55 % 67 % 100 % 1015,4 hPa 0,0 l/m 4,0 km/h (1 Bft) 2 min 0,0 km/h (0 Bft)
14.06.2010 09:32 19,8 C 17,7 C 12,8 UV-I 5,7 C 55 % 66 % 100 % 1015,9 hPa 0,0 l/m 4,4 km/h (1 Bft) 2 min 7,1 km/h (2 Bft)
14.06.2010 09:34 19,8 C 17,7 C 12,8 UV-I 5,9 C 55 % 66 % 100 % 1015,9 hPa 0,0 l/m 4,0 km/h (1 Bft) 2 min 0,0 km/h (0 Bft)
14.06.2010 09:36 19,8 C 17,9 C 13,6 UV-I 5,9 C 55 % 67 % 100 % 1015,9 hPa 0,0 l/m 2,8 km/h (1 Bft) 2 min 0,0 km/h (0 Bft)
14.06.2010 09:38 19,8 C 17,9 C 13,6 UV-I 6,1 C 55 % 66 % 100 % 1015,9 hPa 0,0 l/m 3,6 km/h (1 Bft) 2 min 5,1 km/h (1 Bft)
14.06.2010 09:40 19,8 C 18,0 C 13,6 UV-I 5,9 C 55 % 66 % 100 % 1015,9 hPa 0,0 l/m 3,6 km/h (1 Bft) 2 min 0,0 km/h (0 Bft)
14.06.2010 09:42 19,8 C 18,0 C 13,3 UV-I 5,8 C 55 % 65 % 100 % 1015,9 hPa 0,0 l/m 4,0 km/h (1 Bft) 2 min 0,0 km/h (0 Bft)
14.06.2010 09:44 19,9 C 18,0 C 13,3 UV-I 5,9 C 55 % 65 % 100 % 1015,9 hPa 0,0 l/m 3,6 km/h (1 Bft) 2 min 4,2 km/h (1 Bft)
14.06.2010 09:46 19,9 C 18,1 C 14,6 UV-I 6,0 C 55 % 66 % 100 % 1015,9 hPa 0,0 l/m 3,6 km/h (1 Bft) 2 min 5,8 km/h (2 Bft)
14.06.2010 09:48 19,9 C 18,3 C 14,6 UV-I 6,1 C 55 % 65 % 100 % 1015,9 hPa 0,0 l/m 3,2 km/h (1 Bft) 2 min 0,0 km/h (0 Bft)
14.06.2010 09:50 19,9 C 18,3 C 14,6 UV-I 6,1 C 55 % 66 % 100 % 1015,9 hPa 0,0 l/m 3,2 km/h (1 Bft) 2 min 0,0 km/h (0 Bft)
14.06.2010 09:52 19,9 C 18,4 C 14,9 UV-I 6,4 C 55 % 65 % 100 % 1015,8 hPa 0,0 l/m 2,8 km/h (1 Bft) 2 min 7,4 km/h (2 Bft)
14.06.2010 09:54 19,9 C 18,5 C 14,9 UV-I 6,3 C 55 % 64 % 100 % 1015,8 hPa 0,0 l/m 3,6 km/h (1 Bft) 2 min 12,6 km/h (3 Bft)
14.06.2010 09:56 19,9 C 18,5 C 14,7 UV-I 6,2 C 55 % 65 % 100 % 1015,8 hPa 0,0 l/m 3,2 km/h (1 Bft) 2 min 3,5 km/h (1 Bft)
14.06.2010 09:58 19,9 C 18,6 C 14,7 UV-I 6,2 C 55 % 64 % 100 % 1015,8 hPa 0,0 l/m 3,6 km/h (1 Bft) 2 min 4,8 km/h (1 Bft)
14.06.2010 10:00 19,9 C 18,7 C 14,7 UV-I 6,1 C 55 % 64 % 100 % 1015,8 hPa 0,0 l/m 4,0 km/h (1 Bft) 2 min 6,8 km/h (2 Bft)
14.06.2010 10:04 19,9 C 18,9 C 14,3 UV-I 5,9 C 55 % 64 % 100 % 1015,8 hPa 0,0 l/m 3,2 km/h (1 Bft) 2 min 5,5 km/h (1 Bft)
14.06.2010 10:06 20,0 C 18,9 C 15,4 UV-I 6,1 C 55 % 64 % 100 % 1015,8 hPa 0,0 l/m 3,2 km/h (1 Bft) 2 min 3,5 km/h (1 Bft)
14.06.2010 10:08 19,9 C 19,1 C 15,4 UV-I 6,0 C 55 % 64 % 100 % 1015,8 hPa 0,0 l/m 3,2 km/h (1 Bft) 2 min 3,2 km/h (1 Bft)
14.06.2010 10:10 20,0 C 19,1 C 15,4 UV-I 6,0 C 55 % 63 % 100 % 1015,8 hPa 0,0 l/m 3,2 km/h (1 Bft) 2 min 3,2 km/h (1 Bft)
14.06.2010 10:12 20,0 C 19,0 C 14,5 UV-I 6,3 C 55 % 64 % 100 % 1016,2 hPa 0,0 l/m 3,2 km/h (1 Bft) 2 min 9,7 km/h (2 Bft)
14.06.2010 10:14 20,0 C 19,1 C 14,5 UV-I 6,2 C 55 % 62 % 100 % 1016,2 hPa 0,0 l/m 4,4 km/h (1 Bft) 2 min 10,3 km/h (2 Bft)
14.06.2010 10:16 20,0 C 19,1 C 14,6 UV-I 5,9 C 55 % 62 % 100 % 1016,2 hPa 0,0 l/m 5,2 km/h (1 Bft) 2 min 8,0 km/h (2 Bft)
14.06.2010 10:20 20,0 C 19,2 C 14,6 UV-I 5,8 C 55 % 63 % 100 % 1016,2 hPa 0,0 l/m 5,6 km/h (1 Bft) 2 min 8,7 km/h (2 Bft)
14.06.2010 10:22 20,0 C 19,2 C 14,7 UV-I 5,8 C 55 % 62 % 100 % 1016,2 hPa 0,0 l/m 5,6 km/h (1 Bft) 2 min 4,5 km/h (1 Bft)
14.06.2010 10:24 20,0 C 19,2 C 14,7 UV-I 6,0 C 55 % 63 % 100 % 1016,2 hPa 0,0 l/m 4,8 km/h (1 Bft) 2 min 0,0 km/h (0 Bft)
14.06.2010 10:26 20,0 C 19,4 C 15,0 UV-I 6,0 C 55 % 62 % 100 % 1016,2 hPa 0,0 l/m 3,2 km/h (1 Bft) 2 min 3,5 km/h (1 Bft)
14.06.2010 10:28 20,0 C 19,4 C 15,0 UV-I 6,2 C 55 % 63 % 100 % 1016,2 hPa 0,0 l/m 2,8 km/h (1 Bft) 2 min 6,8 km/h (2 Bft)
14.06.2010 10:30 20,0 C 19,5 C 15,0 UV-I 6,1 C 55 % 62 % 100 % 1016,2 hPa 0,0 l/m 2,8 km/h (1 Bft) 2 min 6,8 km/h (2 Bft)
14.06.2010 10:32 20,0 C 19,6 C 14,8 UV-I 6,2 C 55 % 62 % 100 % 1016,1 hPa 0,0 l/m 2,4 km/h (1 Bft) 2 min 10,9 km/h (2 Bft)
14.06.2010 10:34 20,0 C 19,7 C 14,8 UV-I 6,2 C 55 % 61 % 100 % 1016,1 hPa 0,0 l/m 3,6 km/h (1 Bft) 2 min 15,1 km/h (3 Bft)
14.06.2010 10:38 20,1 C 19,8 C 15,0 UV-I 5,9 C 55 % 61 % 100 % 1016,1 hPa 0,0 l/m 4,8 km/h (1 Bft) 2 min 5,1 km/h (1 Bft)
14.06.2010 10:42 20,1 C 20,1 C 14,7 UV-I 5,8 C 55 % 61 % 100 % 1016,1 hPa 0,0 l/m 5,6 km/h (1 Bft) 2 min 9,3 km/h (2 Bft)
14.06.2010 10:44 20,1 C 20,1 C 14,7 UV-I 5,9 C 55 % 59 % 100 % 1016,1 hPa 0,0 l/m 5,2 km/h (1 Bft) 2 min 0,0 km/h (0 Bft)
14.06.2010 10:46 20,1 C 20,1 C 14,7 UV-I 6,1 C 55 % 60 % 100 % 1016,1 hPa 0,0 l/m 4,4 km/h (1 Bft) 2 min 4,5 km/h (1 Bft)
14.06.2010 10:48 20,1 C 20,2 C 14,7 UV-I 6,1 C 55 % 61 % 100 % 1016,1 hPa 0,0 l/m 4,4 km/h (1 Bft) 2 min 3,2 km/h (1 Bft)
14.06.2010 10:50 20,1 C 20,3 C 14,7 UV-I 6,0 C 55 % 60 % 100 % 1016,1 hPa 0,0 l/m 4,4 km/h (1 Bft) 2 min 3,2 km/h (1 Bft)
14.06.2010 10:54 20,1 C 20,4 C 14,3 UV-I 6,3 C 55 % 59 % 100 % 1016,2 hPa 0,0 l/m 4,0 km/h (1 Bft) 2 min 8,4 km/h (2 Bft)
14.06.2010 10:56 20,1 C 20,4 C 14,3 UV-I 6,1 C 55 % 59 % 100 % 1016,2 hPa 0,0 l/m 4,8 km/h (1 Bft) 2 min 5,1 km/h (1 Bft)
14.06.2010 10:58 20,1 C 20,5 C 14,3 UV-I 5,9 C 55 % 58 % 100 % 1016,2 hPa 0,0 l/m 4,4 km/h (1 Bft) 2 min 3,5 km/h (1 Bft)
14.06.2010 11:00 20,1 C 20,3 C 14,3 UV-I 6,2 C 55 % 58 % 100 % 1016,2 hPa 0,0 l/m 5,2 km/h (1 Bft) 2 min 14,2 km/h (3 Bft)
14.06.2010 11:02 20,1 C 20,5 C 14,4 UV-I 6,0 C 55 % 60 % 100 % 1016,2 hPa 0,0 l/m 5,2 km/h (1 Bft) 2 min 0,0 km/h (0 Bft)
14.06.2010 11:04 20,1 C 20,7 C 14,4 UV-I 6,2 C 55 % 57 % 100 % 1016,2 hPa 0,0 l/m 5,2 km/h (1 Bft) 2 min 8,7 km/h (2 Bft)
14.06.2010 11:06 20,1 C 20,5 C 14,2 UV-I 6,4 C 55 % 58 % 100 % 1016,2 hPa 0,0 l/m 4,4 km/h (1 Bft) 2 min 0,0 km/h (0 Bft)
14.06.2010 11:08 20,1 C 20,5 C 14,2 UV-I 6,6 C 55 % 58 % 100 % 1016,2 hPa 0,0 l/m 4,0 km/h (1 Bft) 2 min 4,5 km/h (1 Bft)
14.06.2010 11:12 20,2 C 20,6 C 13,3 UV-I 6,5 C 55 % 56 % 100 % 1016,2 hPa 0,0 l/m 4,0 km/h (1 Bft) 2 min 5,5 km/h (1 Bft)
14.06.2010 11:14 20,2 C 20,8 C 13,3 UV-I 6,2 C 55 % 56 % 100 % 1016,2 hPa 0,0 l/m 4,4 km/h (1 Bft) 2 min 7,7 km/h (2 Bft)
14.06.2010 11:16 20,2 C 20,8 C 13,3 UV-I 5,9 C 55 % 55 % 100 % 1016,2 hPa 0,0 l/m 4,4 km/h (1 Bft) 2 min 7,1 km/h (2 Bft)
14.06.2010 11:18 20,2 C 20,8 C 13,3 UV-I 5,9 C 55 % 56 % 100 % 1016,2 hPa 0,0 l/m 4,8 km/h (1 Bft) 2 min 7,1 km/h (2 Bft)
14.06.2010 11:20 20,2 C 20,9 C 13,3 UV-I 5,8 C 55 % 55 % 100 % 1016,2 hPa 0,0 l/m 4,8 km/h (1 Bft) 2 min 19,0 km/h (3 Bft)
14.06.2010 11:22 20,2 C 21,1 C 13,3 UV-I 5,6 C 55 % 54 % 100 % 1016,2 hPa 0,0 l/m 4,4 km/h (1 Bft) 2 min 3,9 km/h (1 Bft)
14.06.2010 11:24 20,2 C 21,1 C 13,3 UV-I 5,8 C 55 % 54 % 100 % 1016,2 hPa 0,0 l/m 3,6 km/h (1 Bft) 2 min 3,2 km/h (1 Bft)
14.06.2010 11:28 20,2 C 21,2 C 13,3 UV-I 6,2 C 55 % 54 % 100 % 1016,2 hPa 0,0 l/m 3,6 km/h (1 Bft) 2 min 6,8 km/h (2 Bft)
14.06.2010 11:30 20,2 C 21,3 C 13,3 UV-I 6,1 C 55 % 53 % 100 % 1016,2 hPa 0,0 l/m 3,6 km/h (1 Bft) 2 min 4,2 km/h (1 Bft)
14.06.2010 11:32 20,2 C 21,3 C 12,6 UV-I 6,1 C 55 % 52 % 100 % 1016,4 hPa 0,0 l/m 3,6 km/h (1 Bft) 2 min 9,7 km/h (2 Bft)
14.06.2010 11:34 20,2 C 21,3 C 12,6 UV-I 6,1 C 55 % 52 % 100 % 1016,4 hPa 0,0 l/m 4,8 km/h (1 Bft) 2 min 6,4 km/h (2 Bft)
14.06.2010 11:36 20,2 C 21,3 C 11,5 UV-I 5,8 C 55 % 52 % 100 % 1016,4 hPa 0,0 l/m 6,0 km/h (2 Bft) 2 min 6,1 km/h (2 Bft)
14.06.2010 11:38 20,2 C 21,3 C 11,5 UV-I 5,7 C 55 % 52 % 100 % 1016,4 hPa 0,0 l/m 6,0 km/h (2 Bft) 2 min 0,0 km/h (0 Bft)
14.06.2010 11:40 20,2 C 21,3 C 11,5 UV-I 5,8 C 55 % 54 % 100 % 1016,4 hPa 0,0 l/m 5,6 km/h (1 Bft) 2 min 5,1 km/h (1 Bft)
14.06.2010 11:44 20,3 C 21,7 C 11,0 UV-I 5,9 C 55 % 52 % 100 % 1016,4 hPa 0,0 l/m 4,4 km/h (1 Bft) 2 min 10,6 km/h (2 Bft)
14.06.2010 11:46 20,3 C 21,6 C 10,6 UV-I 6,2 C 55 % 52 % 100 % 1016,4 hPa 0,0 l/m 3,6 km/h (1 Bft) 2 min 4,5 km/h (1 Bft)
14.06.2010 11:48 20,2 C 21,9 C 10,6 UV-I 6,0 C 55 % 52 % 100 % 1016,4 hPa 0,0 l/m 3,2 km/h (1 Bft) 2 min 0,0 km/h (0 Bft)
14.06.2010 11:50 20,4 C 21,9 C 10,6 UV-I 6,0 C 55 % 50 % 100 % 1016,4 hPa 0,0 l/m 3,2 km/h (1 Bft) 2 min 0,0 km/h (0 Bft)
14.06.2010 11:52 20,4 C 21,7 C 10,3 UV-I 6,5 C 55 % 51 % 100 % 1016,3 hPa 0,0 l/m 3,6 km/h (1 Bft) 2 min 0,0 km/h (0 Bft)
14.06.2010 11:54 20,4 C 21,7 C 10,3 UV-I 6,6 C 55 % 52 % 100 % 1016,3 hPa 0,0 l/m 2,8 km/h (1 Bft) 2 min 0,0 km/h (0 Bft)
14.06.2010 11:56 20,4 C 21,7 C 10,1 UV-I 6,7 C 55 % 51 % 100 % 1016,3 hPa 0,0 l/m 3,2 km/h (1 Bft) 2 min 8,0 km/h (2 Bft)
14.06.2010 12:00 20,5 C 21,9 C 10,1 UV-I 6,1 C 55 % 50 % 100 % 1016,3 hPa 0,0 l/m 4,4 km/h (1 Bft) 2 min 7,7 km/h (2 Bft)
14.06.2010 12:02 20,5 C 21,9 C 9,9 UV-I 6,0 C 55 % 50 % 100 % 1016,3 hPa 0,0 l/m 4,8 km/h (1 Bft) 2 min 10,3 km/h (2 Bft)
14.06.2010 12:06 20,6 C 22,1 C 9,7 UV-I 5,7 C 55 % 50 % 100 % 1016,3 hPa 0,0 l/m 6,4 km/h (2 Bft) 2 min 8,0 km/h (2 Bft)
14.06.2010 12:08 20,6 C 22,0 C 9,7 UV-I 5,7 C 55 % 49 % 100 % 1016,3 hPa 0,0 l/m 5,6 km/h (1 Bft) 2 min 0,0 km/h (0 Bft)
14.06.2010 12:10 20,6 C 22,0 C 9,7 UV-I 5,7 C 55 % 49 % 100 % 1016,3 hPa 0,0 l/m 5,6 km/h (1 Bft) 2 min 0,0 km/h (0 Bft)
14.06.2010 12:14 20,7 C 22,0 C 9,7 UV-I 6,2 C 55 % 48 % 100 % 1016,6 hPa 0,0 l/m 4,4 km/h (1 Bft) 2 min 4,8 km/h (1 Bft)
14.06.2010 12:16 20,7 C 22,0 C 9,6 UV-I 6,3 C 55 % 48 % 100 % 1016,6 hPa 0,0 l/m 4,0 km/h (1 Bft) 2 min 6,4 km/h (2 Bft)
14.06.2010 12:18 20,7 C 22,1 C 9,6 UV-I 6,3 C 55 % 48 % 100 % 1016,6 hPa 0,0 l/m 3,6 km/h (1 Bft) 2 min 3,2 km/h (1 Bft)
14.06.2010 12:20 20,8 C 22,3 C 9,6 UV-I 6,3 C 55 % 49 % 100 % 1016,6 hPa 0,0 l/m 3,6 km/h (1 Bft) 2 min 3,2 km/h (1 Bft)
14.06.2010 12:22 20,8 C 22,5 C 9,5 UV-I 6,2 C 55 % 47 % 100 % 1016,6 hPa 0,0 l/m 3,6 km/h (1 Bft) 2 min 6,4 km/h (2 Bft)
14.06.2010 12:24 20,8 C 22,5 C 9,5 UV-I 6,2 C 55 % 47 % 100 % 1016,6 hPa 0,0 l/m 3,6 km/h (1 Bft) 2 min 3,9 km/h (1 Bft)
14.06.2010 12:26 20,8 C 22,5 C 9,7 UV-I 6,4 C 55 % 48 % 100 % 1016,6 hPa 0,0 l/m 4,0 km/h (1 Bft) 2 min 9,7 km/h (2 Bft)
14.06.2010 12:28 20,8 C 22,5 C 9,7 UV-I 6,5 C 55 % 48 % 100 % 1016,6 hPa 0,0 l/m 4,4 km/h (1 Bft) 2 min 10,6 km/h (2 Bft)
14.06.2010 12:30 20,8 C 22,7 C 9,7 UV-I 6,3 C 55 % 47 % 100 % 1016,6 hPa 0,0 l/m 4,4 km/h (1 Bft) 2 min 10,6 km/h (2 Bft)
14.06.2010 12:32 20,9 C 22,5 C 9,3 UV-I 6,1 C 55 % 48 % 100 % 1016,5 hPa 0,0 l/m 4,8 km/h (1 Bft) 2 min 7,7 km/h (2 Bft)
14.06.2010 12:38 20,9 C 22,7 C 9,0 UV-I 5,3 C 54 % 45 % 100 % 1016,5 hPa 0,0 l/m 5,6 km/h (1 Bft) 2 min 4,8 km/h (1 Bft)
14.06.2010 12:44 21,0 C 23,0 C 9,9 UV-I 5,3 C 54 % 46 % 100 % 1016,5 hPa 0,0 l/m 6,0 km/h (2 Bft) 2 min 10,6 km/h (2 Bft)
14.06.2010 12:48 21,0 C 23,1 C 10,2 UV-I 5,4 C 54 % 45 % 100 % 1016,5 hPa 0,0 l/m 5,2 km/h (1 Bft) 2 min 7,4 km/h (2 Bft)
14.06.2010 12:52 21,1 C 23,1 C 10,0 UV-I 5,6 C 54 % 45 % 100 % 1016,8 hPa 0,0 l/m 4,8 km/h (1 Bft) 2 min 3,2 km/h (1 Bft)
14.06.2010 12:54 21,1 C 22,9 C 10,0 UV-I 6,0 C 54 % 44 % 100 % 1016,8 hPa 0,0 l/m 6,0 km/h (2 Bft) 2 min 8,4 km/h (2 Bft)
14.06.2010 12:58 21,2 C 22,7 C 7,6 UV-I 5,1 C 54 % 46 % 100 % 1016,8 hPa 0,0 l/m 6,4 km/h (2 Bft) 2 min 7,4 km/h (2 Bft)
14.06.2010 13:02 21,2 C 22,5 C 8,0 UV-I 4,2 C 54 % 45 % 100 % 1016,8 hPa 0,0 l/m 5,6 km/h (1 Bft) 2 min 8,7 km/h (2 Bft)
14.06.2010 13:12 21,3 C 22,8 C 9,1 UV-I 4,8 C 53 % 46 % 100 % 1017,1 hPa 0,0 l/m 4,4 km/h (1 Bft) 2 min 7,1 km/h (2 Bft)
14.06.2010 13:14 21,3 C 22,9 C 9,1 UV-I 4,8 C 53 % 45 % 100 % 1017,1 hPa 0,0 l/m 4,8 km/h (1 Bft) 2 min 5,1 km/h (1 Bft)
14.06.2010 13:16 21,2 C 23,1 C 10,2 UV-I 4,8 C 53 % 45 % 100 % 1017,1 hPa 0,0 l/m 5,6 km/h (1 Bft) 2 min 5,5 km/h (1 Bft)
14.06.2010 13:18 21,4 C 23,3 C 10,2 UV-I 4,8 C 53 % 44 % 100 % 1017,1 hPa 0,0 l/m 5,6 km/h (1 Bft) 2 min 4,2 km/h (1 Bft)
14.06.2010 13:20 21,2 C 23,5 C 10,2 UV-I 5,0 C 53 % 44 % 100 % 1017,1 hPa 0,0 l/m 5,2 km/h (1 Bft) 2 min 0,0 km/h (0 Bft)
14.06.2010 13:22 21,4 C 23,5 C 9,9 UV-I 5,3 C 53 % 44 % 100 % 1017,1 hPa 0,0 l/m 5,6 km/h (1 Bft) 2 min 0,0 km/h (0 Bft)
14.06.2010 13:23 21,4 C 23,6 C 9,9 UV-I 5,5 C 53 % 42 % 100 % 1017,1 hPa 0,0 l/m 4,4 km/h (1 Bft) 1 min 3,9 km/h (1 Bft)
14.06.2010 13:28 21,4 C 23,7 C 9,8 UV-I 5,8 C 53 % 44 % 100 % 1017,1 hPa 0,0 l/m 3,2 km/h (1 Bft) 2 min 10,3 km/h (2 Bft)
14.06.2010 13:30 21,5 C 23,9 C 9,8 UV-I 5,6 C 53 % 43 % 100 % 1017,1 hPa 0,0 l/m 3,2 km/h (1 Bft) 2 min 10,3 km/h (2 Bft)
14.06.2010 13:32 21,5 C 23,9 C 10,0 UV-I 5,8 C 53 % 43 % 100 % 1017,2 hPa 0,0 l/m 4,0 km/h (1 Bft) 2 min 0,0 km/h (0 Bft)
14.06.2010 13:34 21,5 C 23,9 C 10,0 UV-I 6,0 C 53 % 44 % 100 % 1017,2 hPa 0,0 l/m 4,4 km/h (1 Bft) 2 min 7,7 km/h (2 Bft)
14.06.2010 13:36 21,6 C 24,1 C 8,7 UV-I 5,7 C 53 % 44 % 100 % 1017,2 hPa 0,0 l/m 4,8 km/h (1 Bft) 2 min 4,5 km/h (1 Bft)
14.06.2010 13:38 21,5 C 24,0 C 8,7 UV-I 5,6 C 53 % 43 % 100 % 1017,2 hPa 0,0 l/m 5,2 km/h (1 Bft) 2 min 6,8 km/h (2 Bft)
14.06.2010 13:40 21,6 C 24,0 C 8,7 UV-I 5,4 C 53 % 43 % 100 % 1017,2 hPa 0,0 l/m 5,6 km/h (1 Bft) 2 min 6,8 km/h (2 Bft)
14.06.2010 13:42 21,6 C 24,1 C 10,0 UV-I 5,4 C 53 % 43 % 100 % 1017,2 hPa 0,0 l/m 5,2 km/h (1 Bft) 2 min 4,8 km/h (1 Bft)
14.06.2010 13:44 21,6 C 24,1 C 10,0 UV-I 5,8 C 53 % 41 % 100 % 1017,2 hPa 0,0 l/m 6,0 km/h (2 Bft) 2 min 9,7 km/h (2 Bft)
14.06.2010 13:46 21,6 C 23,9 C 9,1 UV-I 6,2 C 53 % 42 % 100 % 1017,2 hPa 0,0 l/m 6,0 km/h (2 Bft) 2 min 3,5 km/h (1 Bft)
14.06.2010 13:48 21,7 C 23,8 C 9,1 UV-I 5,8 C 53 % 43 % 100 % 1017,2 hPa 0,0 l/m 6,4 km/h (2 Bft) 2 min 11,9 km/h (2 Bft)
14.06.2010 13:50 21,7 C 24,0 C 9,1 UV-I 5,6 C 53 % 44 % 100 % 1017,2 hPa 0,0 l/m 6,4 km/h (2 Bft) 2 min 11,9 km/h (2 Bft)
14.06.2010 13:52 21,7 C 24,3 C 9,6 UV-I 5,2 C 52 % 42 % 100 % 1017,4 hPa 0,0 l/m 5,2 km/h (1 Bft) 2 min 4,5 km/h (1 Bft)
14.06.2010 13:54 21,8 C 24,5 C 9,6 UV-I 5,4 C 52 % 42 % 100 % 1017,4 hPa 0,0 l/m 5,6 km/h (1 Bft) 2 min 3,5 km/h (1 Bft)
14.06.2010 13:56 21,8 C 24,7 C 9,9 UV-I 5,5 C 52 % 41 % 100 % 1017,4 hPa 0,0 l/m 4,8 km/h (1 Bft) 2 min 3,9 km/h (1 Bft)
14.06.2010 13:58 21,8 C 24,8 C 9,9 UV-I 5,7 C 52 % 42 % 100 % 1017,4 hPa 0,0 l/m 4,4 km/h (1 Bft) 2 min 12,9 km/h (3 Bft)
14.06.2010 14:00 21,8 C 24,9 C 9,9 UV-I 5,9 C 52 % 41 % 100 % 1017,4 hPa 0,0 l/m 4,4 km/h (1 Bft) 2 min 9,7 km/h (2 Bft)
14.06.2010 14:02 21,9 C 25,0 C 9,9 UV-I 5,9 C 52 % 40 % 100 % 1017,4 hPa 0,0 l/m 4,4 km/h (1 Bft) 2 min 3,2 km/h (1 Bft)
14.06.2010 14:04 21,9 C 24,9 C 9,9 UV-I 6,0 C 52 % 40 % 100 % 1017,4 hPa 0,0 l/m 4,0 km/h (1 Bft) 2 min 13,5 km/h (3 Bft)
14.06.2010 14:06 21,9 C 24,7 C 7,7 UV-I 5,5 C 52 % 40 % 100 % 1017,4 hPa 0,0 l/m 4,4 km/h (1 Bft) 2 min 3,9 km/h (1 Bft)
14.06.2010 14:08 22,0 C 24,5 C 7,7 UV-I 5,2 C 52 % 39 % 100 % 1017,4 hPa 0,0 l/m 4,8 km/h (1 Bft) 2 min 4,8 km/h (1 Bft)
14.06.2010 14:10 22,0 C 24,4 C 7,7 UV-I 5,3 C 52 % 39 % 100 % 1017,4 hPa 0,0 l/m 4,8 km/h (1 Bft) 2 min 4,8 km/h (1 Bft)
14.06.2010 14:12 22,0 C 24,2 C 7,0 UV-I 4,0 C 52 % 39 % 100 % 1017,6 hPa 0,0 l/m 3,2 km/h (1 Bft) 2 min 5,5 km/h (1 Bft)
14.06.2010 14:14 22,0 C 23,9 C 7,0 UV-I 3,9 C 52 % 41 % 100 % 1017,6 hPa 0,0 l/m 3,2 km/h (1 Bft) 2 min 0,0 km/h (0 Bft)
14.06.2010 14:16 22,0 C 24,0 C 8,5 UV-I 3,6 C 52 % 42 % 100 % 1017,6 hPa 0,0 l/m 2,4 km/h (1 Bft) 2 min 3,5 km/h (1 Bft)
14.06.2010 14:18 22,1 C 24,1 C 8,5 UV-I 3,9 C 52 % 43 % 100 % 1017,6 hPa 0,0 l/m 1,6 km/h (1 Bft) 2 min 4,8 km/h (1 Bft)
14.06.2010 14:20 22,1 C 24,2 C 8,5 UV-I 3,9 C 51 % 42 % 100 % 1017,6 hPa 0,0 l/m 2,0 km/h (1 Bft) 2 min 3,9 km/h (1 Bft)
14.06.2010 14:22 22,1 C 24,3 C 7,4 UV-I 3,6 C 51 % 42 % 100 % 1017,6 hPa 0,0 l/m 2,4 km/h (1 Bft) 2 min 7,4 km/h (2 Bft)
14.06.2010 14:24 22,2 C 24,2 C 7,4 UV-I 3,3 C 51 % 42 % 94 % 1017,6 hPa 0,0 l/m 3,2 km/h (1 Bft) 2 min 4,8 km/h (1 Bft)
14.06.2010 14:26 22,2 C 24,1 C 6,9 UV-I 3,0 C 51 % 42 % 86 % 1017,6 hPa 0,0 l/m 3,2 km/h (1 Bft) 2 min 0,0 km/h (0 Bft)
14.06.2010 14:28 22,2 C 24,1 C 6,9 UV-I 2,8 C 51 % 41 % 80 % 1017,6 hPa 0,0 l/m 3,6 km/h (1 Bft) 0 min 5,8 km/h (2 Bft)
14.06.2010 14:30 22,2 C 24,0 C 6,9 UV-I 2,9 C 51 % 43 % 83 % 1017,6 hPa 0,0 l/m 3,6 km/h (1 Bft) 2 min 5,8 km/h (2 Bft)
14.06.2010 14:32 22,3 C 24,1 C 8,5 UV-I 2,9 C 51 % 41 % 83 % 1017,2 hPa 0,0 l/m 4,4 km/h (1 Bft) 2 min 5,5 km/h (1 Bft)
14.06.2010 14:34 22,2 C 24,2 C 8,5 UV-I 2,9 C 51 % 39 % 83 % 1017,2 hPa 0,0 l/m 4,8 km/h (1 Bft) 2 min 13,2 km/h (3 Bft)
14.06.2010 14:36 22,4 C 24,1 C 8,9 UV-I 3,2 C 51 % 39 % 91 % 1017,2 hPa 0,0 l/m 5,2 km/h (1 Bft) 2 min 9,0 km/h (2 Bft)
14.06.2010 14:38 22,4 C 24,0 C 8,9 UV-I 3,6 C 51 % 38 % 100 % 1017,2 hPa 0,0 l/m 7,2 km/h (2 Bft) 2 min 3,2 km/h (1 Bft)
14.06.2010 14:40 22,4 C 24,0 C 8,9 UV-I 4,0 C 51 % 39 % 100 % 1017,2 hPa 0,0 l/m 8,0 km/h (2 Bft) 2 min 10,9 km/h (2 Bft)
14.06.2010 14:42 22,5 C 24,2 C 9,8 UV-I 4,3 C 51 % 39 % 100 % 1017,2 hPa 0,0 l/m 8,0 km/h (2 Bft) 2 min 8,7 km/h (2 Bft)
14.06.2010 14:44 22,6 C 24,3 C 9,8 UV-I 4,7 C 50 % 40 % 100 % 1017,2 hPa 0,0 l/m 7,6 km/h (2 Bft) 2 min 0,0 km/h (0 Bft)
14.06.2010 14:46 22,6 C 24,3 C 9,1 UV-I 4,8 C 50 % 39 % 100 % 1017,2 hPa 0,0 l/m 6,0 km/h (2 Bft) 2 min 0,0 km/h (0 Bft)
14.06.2010 14:48 22,7 C 24,4 C 9,1 UV-I 4,9 C 50 % 40 % 100 % 1017,2 hPa 0,0 l/m 4,4 km/h (1 Bft) 2 min 5,5 km/h (1 Bft)
14.06.2010 14:50 22,7 C 24,4 C 9,1 UV-I 4,9 C 50 % 39 % 100 % 1017,2 hPa 0,0 l/m 4,4 km/h (1 Bft) 2 min 5,5 km/h (1 Bft)
14.06.2010 14:52 22,7 C 24,3 C 6,4 UV-I 4,5 C 50 % 37 % 100 % 1017,8 hPa 0,0 l/m 3,2 km/h (1 Bft) 2 min 6,1 km/h (2 Bft)
14.06.2010 14:54 22,7 C 24,0 C 6,4 UV-I 4,3 C 50 % 39 % 100 % 1017,8 hPa 0,0 l/m 3,2 km/h (1 Bft) 2 min 8,0 km/h (2 Bft)
14.06.2010 14:56 22,7 C 23,9 C 6,4 UV-I 4,0 C 50 % 40 % 100 % 1017,8 hPa 0,0 l/m 4,0 km/h (1 Bft) 2 min 6,8 km/h (2 Bft)
14.06.2010 14:58 22,7 C 23,7 C 6,4 UV-I 3,6 C 49 % 41 % 100 % 1017,8 hPa 0,0 l/m 5,6 km/h (1 Bft) 2 min 9,0 km/h (2 Bft)
14.06.2010 15:00 22,7 C 23,5 C 6,4 UV-I 3,3 C 49 % 41 % 94 % 1017,8 hPa 0,0 l/m 6,0 km/h (2 Bft) 2 min 3,2 km/h (1 Bft)
14.06.2010 15:02 22,7 C 23,3 C 5,0 UV-I 3,0 C 49 % 42 % 86 % 1017,8 hPa 0,0 l/m 7,2 km/h (2 Bft) 2 min 5,8 km/h (2 Bft)
14.06.2010 15:04 22,7 C 23,2 C 5,0 UV-I 2,8 C 49 % 42 % 80 % 1017,8 hPa 0,0 l/m 7,2 km/h (2 Bft) 0 min 12,9 km/h (3 Bft)
14.06.2010 15:06 22,7 C 23,1 C 4,7 UV-I 2,5 C 49 % 43 % 71 % 1017,8 hPa 0,0 l/m 6,8 km/h (2 Bft) 0 min 11,3 km/h (2 Bft)
14.06.2010 15:08 22,7 C 23,1 C 4,7 UV-I 2,2 C 49 % 43 % 63 % 1017,8 hPa 0,0 l/m 6,8 km/h (2 Bft) 0 min 3,9 km/h (1 Bft)
14.06.2010 15:10 22,7 C 23,1 C 4,7 UV-I 2,2 C 49 % 44 % 63 % 1017,8 hPa 0,0 l/m 6,8 km/h (2 Bft) 0 min 3,9 km/h (1 Bft)
14.06.2010 15:12 22,7 C 22,9 C 5,0 UV-I 2,0 C 49 % 43 % 57 % 1017,3 hPa 0,0 l/m 6,8 km/h (2 Bft) 0 min 6,1 km/h (2 Bft)
14.06.2010 15:14 22,7 C 22,8 C 5,0 UV-I 2,0 C 49 % 44 % 57 % 1017,3 hPa 0,0 l/m 6,4 km/h (2 Bft) 0 min 3,9 km/h (1 Bft)
14.06.2010 15:16 22,7 C 22,8 C 5,5 UV-I 1,9 C 49 % 44 % 54 % 1017,3 hPa 0,0 l/m 6,4 km/h (2 Bft) 0 min 8,4 km/h (2 Bft)
14.06.2010 15:18 22,7 C 22,9 C 5,5 UV-I 1,6 C 49 % 44 % 46 % 1017,3 hPa 0,0 l/m 7,2 km/h (2 Bft) 0 min 0,0 km/h (0 Bft)
14.06.2010 15:20 22,8 C 22,9 C 5,5 UV-I 1,6 C 49 % 45 % 46 % 1017,3 hPa 0,0 l/m 7,6 km/h (2 Bft) 0 min 4,5 km/h (1 Bft)
14.06.2010 15:22 22,8 C 22,8 C 6,2 UV-I 1,8 C 49 % 45 % 51 % 1017,3 hPa 0,0 l/m 6,8 km/h (2 Bft) 0 min 10,9 km/h (2 Bft)
14.06.2010 15:24 22,7 C 22,9 C 6,2 UV-I 1,8 C 49 % 44 % 51 % 1017,3 hPa 0,0 l/m 7,2 km/h (2 Bft) 0 min 10,0 km/h (2 Bft)
14.06.2010 15:26 22,8 C 22,8 C 6,6 UV-I 2,0 C 49 % 44 % 57 % 1017,3 hPa 0,0 l/m 8,0 km/h (2 Bft) 0 min 11,6 km/h (2 Bft)
14.06.2010 15:28 22,8 C 22,8 C 6,6 UV-I 2,0 C 49 % 45 % 57 % 1017,3 hPa 0,0 l/m 7,6 km/h (2 Bft) 0 min 11,6 km/h (2 Bft)
14.06.2010 15:30 22,8 C 22,7 C 6,6 UV-I 2,1 C 49 % 45 % 60 % 1017,3 hPa 0,0 l/m 7,6 km/h (2 Bft) 0 min 11,6 km/h (2 Bft)
14.06.2010 15:32 22,8 C 22,7 C 6,1 UV-I 1,9 C 49 % 45 % 54 % 1017,7 hPa 0,0 l/m 10,0 km/h (2 Bft) 0 min 7,1 km/h (2 Bft)
14.06.2010 15:34 22,8 C 22,6 C 6,1 UV-I 1,9 C 49 % 45 % 54 % 1017,7 hPa 0,0 l/m 10,0 km/h (2 Bft) 0 min 6,1 km/h (2 Bft)
14.06.2010 15:36 22,8 C 22,7 C 6,0 UV-I 1,8 C 49 % 46 % 51 % 1017,7 hPa 0,0 l/m 9,2 km/h (2 Bft) 0 min 4,8 km/h (1 Bft)
14.06.2010 15:38 22,8 C 22,6 C 6,0 UV-I 1,9 C 49 % 45 % 54 % 1017,7 hPa 0,0 l/m 8,8 km/h (2 Bft) 0 min 13,8 km/h (3 Bft)
14.06.2010 15:40 22,8 C 22,7 C 6,0 UV-I 1,8 C 49 % 45 % 51 % 1017,7 hPa 0,0 l/m 8,4 km/h (2 Bft) 0 min 8,4 km/h (2 Bft)
14.06.2010 15:42 22,8 C 22,7 C 6,0 UV-I 1,7 C 49 % 46 % 49 % 1017,7 hPa 0,0 l/m 7,6 km/h (2 Bft) 0 min 4,2 km/h (1 Bft)
14.06.2010 15:44 22,8 C 22,7 C 6,0 UV-I 1,7 C 49 % 46 % 49 % 1017,7 hPa 0,0 l/m 6,8 km/h (2 Bft) 0 min 3,2 km/h (1 Bft)
14.06.2010 15:46 22,8 C 22,7 C 6,2 UV-I 1,8 C 49 % 46 % 51 % 1017,7 hPa 0,0 l/m 7,2 km/h (2 Bft) 0 min 7,1 km/h (2 Bft)
14.06.2010 15:48 22,8 C 22,8 C 6,2 UV-I 1,7 C 49 % 44 % 49 % 1017,7 hPa 0,0 l/m 7,2 km/h (2 Bft) 0 min 9,3 km/h (2 Bft)
14.06.2010 15:50 22,8 C 22,8 C 6,2 UV-I 1,7 C 49 % 44 % 49 % 1017,7 hPa 0,0 l/m 7,2 km/h (2 Bft) 0 min 9,3 km/h (2 Bft)
14.06.2010 15:52 22,8 C 22,9 C 7,1 UV-I 2,1 C 49 % 44 % 60 % 1017,8 hPa 0,0 l/m 7,2 km/h (2 Bft) 0 min 7,7 km/h (2 Bft)
14.06.2010 15:54 22,9 C 22,8 C 7,1 UV-I 2,4 C 49 % 44 % 69 % 1017,8 hPa 0,0 l/m 8,0 km/h (2 Bft) 0 min 7,4 km/h (2 Bft)
14.06.2010 15:56 22,9 C 22,9 C 7,1 UV-I 2,4 C 49 % 44 % 69 % 1017,8 hPa 0,0 l/m 7,6 km/h (2 Bft) 0 min 0,0 km/h (0 Bft)
14.06.2010 15:58 22,9 C 22,9 C 7,1 UV-I 2,4 C 49 % 44 % 69 % 1017,8 hPa 0,0 l/m 8,0 km/h (2 Bft) 0 min 6,1 km/h (2 Bft)
14.06.2010 16:00 23,0 C 23,1 C 7,1 UV-I 2,6 C 49 % 44 % 74 % 1017,8 hPa 0,0 l/m 8,4 km/h (2 Bft) 0 min 14,5 km/h (3 Bft)
14.06.2010 16:02 23,0 C 23,3 C 10,1 UV-I 3,1 C 49 % 44 % 89 % 1017,8 hPa 0,0 l/m 8,4 km/h (2 Bft) 2 min 10,9 km/h (2 Bft)
14.06.2010 16:04 23,1 C 23,5 C 10,1 UV-I 3,6 C 48 % 44 % 100 % 1017,8 hPa 0,0 l/m 7,6 km/h (2 Bft) 2 min 7,1 km/h (2 Bft)
14.06.2010 16:06 23,2 C 23,7 C 10,2 UV-I 3,9 C 48 % 42 % 100 % 1017,8 hPa 0,0 l/m 9,2 km/h (2 Bft) 2 min 11,6 km/h (2 Bft)
14.06.2010 16:08 23,3 C 23,7 C 10,2 UV-I 4,3 C 48 % 42 % 100 % 1017,8 hPa 0,0 l/m 10,4 km/h (2 Bft) 2 min 15,4 km/h (3 Bft)
14.06.2010 16:10 23,2 C 23,7 C 10,2 UV-I 4,3 C 48 % 42 % 100 % 1017,8 hPa 0,0 l/m 10,4 km/h (2 Bft) 2 min 19,3 km/h (3 Bft)
14.06.2010 16:12 23,2 C 23,9 C 10,3 UV-I 4,6 C 48 % 43 % 100 % 1018,9 hPa 0,0 l/m 9,2 km/h (2 Bft) 2 min 3,9 km/h (1 Bft)
14.06.2010 16:14 23,2 C 23,9 C 10,3 UV-I 4,9 C 48 % 42 % 100 % 1018,9 hPa 0,0 l/m 10,0 km/h (2 Bft) 2 min 20,6 km/h (4 Bft)
14.06.2010 16:16 23,2 C 24,0 C 10,3 UV-I 5,1 C 48 % 42 % 100 % 1018,9 hPa 0,0 l/m 9,2 km/h (2 Bft) 2 min 5,8 km/h (2 Bft)
14.06.2010 16:18 23,2 C 24,0 C 10,3 UV-I 5,2 C 48 % 41 % 100 % 1018,9 hPa 0,0 l/m 8,4 km/h (2 Bft) 2 min 10,3 km/h (2 Bft)
14.06.2010 16:20 23,2 C 24,1 C 10,3 UV-I 5,1 C 48 % 40 % 100 % 1018,9 hPa 0,0 l/m 7,6 km/h (2 Bft) 2 min 20,6 km/h (4 Bft)
14.06.2010 16:22 23,4 C 24,0 C 9,1 UV-I 4,9 C 48 % 41 % 100 % 1018,9 hPa 0,0 l/m 8,4 km/h (2 Bft) 2 min 14,8 km/h (3 Bft)
14.06.2010 16:24 23,2 C 24,0 C 9,1 UV-I 4,8 C 48 % 41 % 100 % 1018,9 hPa 0,0 l/m 9,6 km/h (2 Bft) 2 min 13,5 km/h (3 Bft)
14.06.2010 16:26 23,2 C 24,0 C 10,2 UV-I 4,8 C 48 % 40 % 100 % 1018,9 hPa 0,0 l/m 8,0 km/h (2 Bft) 2 min 6,8 km/h (2 Bft)
14.06.2010 16:28 23,2 C 24,0 C 10,2 UV-I 5,0 C 48 % 42 % 100 % 1018,9 hPa 0,0 l/m 8,0 km/h (2 Bft) 2 min 6,1 km/h (2 Bft)
14.06.2010 16:30 23,2 C 24,3 C 10,2 UV-I 4,7 C 48 % 40 % 100 % 1018,9 hPa 0,0 l/m 8,0 km/h (2 Bft) 2 min 23,8 km/h (4 Bft)
14.06.2010 16:32 23,2 C 24,2 C 9,6 UV-I 4,8 C 48 % 40 % 100 % 1018,2 hPa 0,0 l/m 8,0 km/h (2 Bft) 2 min 5,1 km/h (1 Bft)
14.06.2010 16:34 23,2 C 24,3 C 9,6 UV-I 4,7 C 48 % 41 % 100 % 1018,2 hPa 0,0 l/m 6,8 km/h (2 Bft) 2 min 3,5 km/h (1 Bft)
14.06.2010 16:36 23,2 C 24,4 C 9,9 UV-I 4,6 C 48 % 39 % 100 % 1018,2 hPa 0,0 l/m 6,0 km/h (2 Bft) 2 min 12,2 km/h (2 Bft)
14.06.2010 16:38 23,2 C 24,3 C 9,9 UV-I 4,7 C 48 % 39 % 100 % 1018,2 hPa 0,0 l/m 8,0 km/h (2 Bft) 2 min 15,4 km/h (3 Bft)
14.06.2010 16:40 23,2 C 24,3 C 9,9 UV-I 4,6 C 48 % 39 % 100 % 1018,2 hPa 0,0 l/m 8,8 km/h (2 Bft) 2 min 4,2 km/h (1 Bft)
14.06.2010 16:42 23,2 C 24,3 C 10,8 UV-I 4,7 C 48 % 39 % 100 % 1018,2 hPa 0,0 l/m 7,6 km/h (2 Bft) 2 min 17,7 km/h (3 Bft)
14.06.2010 16:44 23,2 C 24,2 C 10,8 UV-I 4,8 C 48 % 39 % 100 % 1018,2 hPa 0,0 l/m 9,6 km/h (2 Bft) 2 min 19,6 km/h (3 Bft)
14.06.2010 16:46 23,3 C 24,1 C 10,9 UV-I 4,7 C 48 % 38 % 100 % 1018,2 hPa 0,0 l/m 10,8 km/h (2 Bft) 2 min 18,0 km/h (3 Bft)
14.06.2010 16:48 23,3 C 24,1 C 10,9 UV-I 4,4 C 48 % 38 % 100 % 1018,2 hPa 0,0 l/m 12,8 km/h (3 Bft) 2 min 13,8 km/h (3 Bft)
14.06.2010 16:50 23,3 C 24,0 C 10,9 UV-I 4,5 C 48 % 39 % 100 % 1018,2 hPa 0,0 l/m 12,8 km/h (3 Bft) 2 min 13,8 km/h (3 Bft)
14.06.2010 16:52 23,3 C 24,0 C 10,8 UV-I 4,1 C 48 % 39 % 100 % 1017,8 hPa 0,0 l/m 14,1 km/h (3 Bft) 2 min 4,5 km/h (1 Bft)
14.06.2010 16:54 23,3 C 24,0 C 10,8 UV-I 4,1 C 48 % 40 % 100 % 1017,8 hPa 0,0 l/m 13,7 km/h (3 Bft) 2 min 18,7 km/h (3 Bft)
14.06.2010 16:56 23,3 C 24,1 C 10,7 UV-I 3,8 C 48 % 38 % 100 % 1017,8 hPa 0,0 l/m 14,9 km/h (3 Bft) 2 min 10,0 km/h (2 Bft)
14.06.2010 16:58 23,2 C 24,1 C 10,7 UV-I 3,7 C 48 % 40 % 100 % 1017,8 hPa 0,0 l/m 12,0 km/h (2 Bft) 2 min 0,0 km/h (0 Bft)
14.06.2010 17:00 23,3 C 24,1 C 10,7 UV-I 3,9 C 48 % 39 % 100 % 1017,8 hPa 0,0 l/m 10,0 km/h (2 Bft) 2 min 30,3 km/h (5 Bft)
14.06.2010 17:02 23,2 C 24,1 C 11,0 UV-I 4,2 C 48 % 41 % 100 % 1017,8 hPa 0,0 l/m 8,4 km/h (2 Bft) 2 min 6,4 km/h (2 Bft)
14.06.2010 17:04 23,2 C 24,3 C 11,0 UV-I 4,1 C 48 % 38 % 100 % 1017,8 hPa 0,0 l/m 10,4 km/h (2 Bft) 2 min 16,7 km/h (3 Bft)
14.06.2010 17:06 23,2 C 24,2 C 10,7 UV-I 4,2 C 48 % 39 % 100 % 1017,8 hPa 0,0 l/m 8,0 km/h (2 Bft) 2 min 5,1 km/h (1 Bft)
14.06.2010 17:08 23,2 C 24,2 C 10,7 UV-I 4,2 C 48 % 39 % 100 % 1017,8 hPa 0,0 l/m 8,8 km/h (2 Bft) 2 min 16,4 km/h (3 Bft)
14.06.2010 17:10 23,2 C 24,1 C 10,7 UV-I 4,3 C 48 % 38 % 100 % 1017,8 hPa 0,0 l/m 8,8 km/h (2 Bft) 2 min 35,4 km/h (5 Bft)
14.06.2010 17:12 23,2 C 24,1 C 10,5 UV-I 4,2 C 48 % 38 % 100 % 1017,6 hPa 0,0 l/m 12,4 km/h (3 Bft) 2 min 8,4 km/h (2 Bft)
14.06.2010 17:14 23,2 C 24,1 C 10,5 UV-I 4,0 C 48 % 39 % 100 % 1017,6 hPa 0,0 l/m 12,4 km/h (3 Bft) 2 min 6,4 km/h (2 Bft)
14.06.2010 17:16 23,2 C 24,1 C 10,6 UV-I 4,0 C 48 % 39 % 100 % 1017,6 hPa 0,0 l/m 12,0 km/h (2 Bft) 2 min 13,5 km/h (3 Bft)
14.06.2010 17:18 23,2 C 24,1 C 10,6 UV-I 4,0 C 48 % 38 % 100 % 1017,6 hPa 0,0 l/m 13,3 km/h (3 Bft) 2 min 8,4 km/h (2 Bft)
14.06.2010 17:20 23,2 C 24,1 C 10,6 UV-I 4,0 C 48 % 39 % 100 % 1017,6 hPa 0,0 l/m 11,2 km/h (2 Bft) 2 min 3,5 km/h (1 Bft)
14.06.2010 17:22 23,2 C 24,2 C 10,3 UV-I 4,1 C 48 % 39 % 100 % 1017,6 hPa 0,0 l/m 10,0 km/h (2 Bft) 2 min 3,5 km/h (1 Bft)
14.06.2010 17:24 23,2 C 24,3 C 10,3 UV-I 4,1 C 48 % 38 % 100 % 1017,6 hPa 0,0 l/m 9,2 km/h (2 Bft) 2 min 10,9 km/h (2 Bft)
14.06.2010 17:26 23,2 C 24,3 C 10,9 UV-I 4,3 C 48 % 39 % 100 % 1017,6 hPa 0,0 l/m 8,8 km/h (2 Bft) 2 min 4,5 km/h (1 Bft)
14.06.2010 17:28 23,2 C 24,4 C 10,9 UV-I 4,4 C 48 % 39 % 100 % 1017,6 hPa 0,0 l/m 7,2 km/h (2 Bft) 2 min 8,4 km/h (2 Bft)
14.06.2010 17:30 23,2 C 24,4 C 10,9 UV-I 4,4 C 48 % 39 % 100 % 1017,6 hPa 0,0 l/m 7,2 km/h (2 Bft) 2 min 8,4 km/h (2 Bft)
14.06.2010 17:32 23,2 C 24,5 C 10,2 UV-I 4,6 C 48 % 38 % 100 % 1017,2 hPa 0,0 l/m 7,6 km/h (2 Bft) 2 min 11,3 km/h (2 Bft)
14.06.2010 17:34 23,2 C 24,5 C 10,2 UV-I 4,7 C 48 % 39 % 100 % 1017,2 hPa 0,0 l/m 8,4 km/h (2 Bft) 2 min 17,7 km/h (3 Bft)
14.06.2010 17:36 23,2 C 24,4 C 9,4 UV-I 4,8 C 48 % 39 % 100 % 1017,2 hPa 0,0 l/m 8,4 km/h (2 Bft) 2 min 5,1 km/h (1 Bft)
14.06.2010 17:38 23,2 C 24,5 C 9,4 UV-I 4,6 C 48 % 39 % 100 % 1017,2 hPa 0,0 l/m 8,0 km/h (2 Bft) 2 min 5,8 km/h (2 Bft)
14.06.2010 17:40 23,2 C 24,4 C 9,4 UV-I 4,2 C 48 % 39 % 100 % 1017,2 hPa 0,0 l/m 8,4 km/h (2 Bft) 2 min 7,7 km/h (2 Bft)
14.06.2010 17:42 23,2 C 24,2 C 5,0 UV-I 3,9 C 48 % 39 % 100 % 1017,2 hPa 0,0 l/m 7,2 km/h (2 Bft) 2 min 5,8 km/h (2 Bft)
14.06.2010 17:44 23,2 C 24,0 C 5,0 UV-I 3,3 C 48 % 39 % 94 % 1017,2 hPa 0,0 l/m 6,8 km/h (2 Bft) 2 min 19,3 km/h (3 Bft)
14.06.2010 17:46 23,2 C 23,7 C 5,0 UV-I 2,8 C 48 % 38 % 80 % 1017,2 hPa 0,0 l/m 7,6 km/h (2 Bft) 0 min 16,4 km/h (3 Bft)
14.06.2010 17:48 23,2 C 23,5 C 5,0 UV-I 2,4 C 48 % 39 % 69 % 1017,2 hPa 0,0 l/m 8,0 km/h (2 Bft) 0 min 7,1 km/h (2 Bft)
14.06.2010 17:50 23,2 C 23,5 C 5,0 UV-I 2,4 C 48 % 40 % 69 % 1017,2 hPa 0,0 l/m 8,0 km/h (2 Bft) 0 min 7,1 km/h (2 Bft)
14.06.2010 17:52 23,2 C 23,5 C 4,6 UV-I 1,3 C 48 % 40 % 37 % 1017,4 hPa 0,0 l/m 10,0 km/h (2 Bft) 0 min 11,6 km/h (2 Bft)
14.06.2010 17:54 23,2 C 23,4 C 4,6 UV-I 1,5 C 48 % 41 % 43 % 1017,4 hPa 0,0 l/m 10,0 km/h (2 Bft) 0 min 5,8 km/h (2 Bft)
14.06.2010 17:56 23,2 C 23,5 C 5,5 UV-I 1,7 C 48 % 40 % 49 % 1017,4 hPa 0,0 l/m 9,2 km/h (2 Bft) 0 min 13,2 km/h (3 Bft)
14.06.2010 17:58 23,3 C 23,4 C 5,5 UV-I 2,1 C 48 % 39 % 60 % 1017,4 hPa 0,0 l/m 10,8 km/h (2 Bft) 0 min 22,5 km/h (4 Bft)
14.06.2010 18:00 23,2 C 23,5 C 5,5 UV-I 2,1 C 48 % 39 % 60 % 1017,4 hPa 0,0 l/m 11,6 km/h (2 Bft) 0 min 4,5 km/h (1 Bft)
14.06.2010 18:02 23,2 C 23,4 C 5,1 UV-I 2,5 C 48 % 41 % 71 % 1017,4 hPa 0,0 l/m 10,0 km/h (2 Bft) 0 min 3,2 km/h (1 Bft)
14.06.2010 18:04 23,4 C 23,5 C 5,1 UV-I 2,7 C 48 % 41 % 77 % 1017,4 hPa 0,0 l/m 9,2 km/h (2 Bft) 0 min 7,4 km/h (2 Bft)
14.06.2010 18:06 23,4 C 23,6 C 6,2 UV-I 3,0 C 48 % 40 % 86 % 1017,4 hPa 0,0 l/m 9,6 km/h (2 Bft) 2 min 5,8 km/h (2 Bft)
14.06.2010 18:08 23,4 C 23,6 C 6,2 UV-I 3,3 C 48 % 40 % 94 % 1017,4 hPa 0,0 l/m 6,8 km/h (2 Bft) 2 min 0,0 km/h (0 Bft)
14.06.2010 18:10 23,4 C 23,6 C 6,2 UV-I 3,3 C 48 % 40 % 94 % 1017,4 hPa 0,0 l/m 6,8 km/h (2 Bft) 2 min 0,0 km/h (0 Bft)
14.06.2010 18:12 23,5 C 23,7 C 4,8 UV-I 3,4 C 47 % 40 % 97 % 1018,2 hPa 0,0 l/m 6,4 km/h (2 Bft) 2 min 14,2 km/h (3 Bft)
14.06.2010 18:14 23,5 C 23,6 C 4,8 UV-I 3,3 C 48 % 39 % 94 % 1018,2 hPa 0,0 l/m 7,2 km/h (2 Bft) 2 min 5,1 km/h (1 Bft)
14.06.2010 18:16 23,5 C 23,7 C 4,5 UV-I 3,1 C 47 % 40 % 89 % 1018,2 hPa 0,0 l/m 6,4 km/h (2 Bft) 2 min 6,1 km/h (2 Bft)
14.06.2010 18:18 23,5 C 23,7 C 4,5 UV-I 2,9 C 47 % 40 % 83 % 1018,2 hPa 0,0 l/m 6,4 km/h (2 Bft) 2 min 7,4 km/h (2 Bft)
14.06.2010 18:20 23,5 C 23,7 C 4,5 UV-I 2,9 C 47 % 41 % 83 % 1018,2 hPa 0,0 l/m 6,8 km/h (2 Bft) 2 min 7,4 km/h (2 Bft)
14.06.2010 18:22 23,5 C 23,7 C 4,4 UV-I 3,0 C 47 % 40 % 86 % 1018,2 hPa 0,0 l/m 6,4 km/h (2 Bft) 2 min 10,0 km/h (2 Bft)
14.06.2010 18:24 23,5 C 23,7 C 4,4 UV-I 3,0 C 47 % 40 % 86 % 1018,2 hPa 0,0 l/m 4,8 km/h (1 Bft) 2 min 4,2 km/h (1 Bft)
14.06.2010 18:26 23,5 C 23,6 C 5,1 UV-I 3,2 C 47 % 39 % 91 % 1018,2 hPa 0,0 l/m 5,2 km/h (1 Bft) 2 min 9,7 km/h (2 Bft)
14.06.2010 18:28 23,5 C 23,7 C 5,1 UV-I 3,1 C 47 % 39 % 89 % 1018,2 hPa 0,0 l/m 6,0 km/h (2 Bft) 2 min 0,0 km/h (0 Bft)
14.06.2010 18:30 23,5 C 23,5 C 5,1 UV-I 3,3 C 47 % 40 % 94 % 1018,2 hPa 0,0 l/m 6,0 km/h (2 Bft) 2 min 0,0 km/h (0 Bft)
14.06.2010 18:32 23,5 C 23,4 C 4,1 UV-I 2,7 C 47 % 40 % 77 % 1018,2 hPa 0,0 l/m 6,0 km/h (2 Bft) 0 min 5,5 km/h (1 Bft)
14.06.2010 18:34 23,5 C 23,5 C 4,1 UV-I 2,2 C 47 % 40 % 63 % 1018,2 hPa 0,0 l/m 5,6 km/h (1 Bft) 0 min 3,9 km/h (1 Bft)
14.06.2010 18:36 23,5 C 23,5 C 4,1 UV-I 1,9 C 47 % 39 % 54 % 1018,2 hPa 0,0 l/m 6,4 km/h (2 Bft) 0 min 5,5 km/h (1 Bft)
14.06.2010 18:38 23,5 C 23,5 C 4,1 UV-I 1,6 C 47 % 39 % 46 % 1018,2 hPa 0,0 l/m 5,6 km/h (1 Bft) 0 min 4,8 km/h (1 Bft)
14.06.2010 18:40 23,5 C 23,4 C 4,1 UV-I 1,5 C 47 % 39 % 43 % 1018,2 hPa 0,0 l/m 4,8 km/h (1 Bft) 0 min 3,5 km/h (1 Bft)
14.06.2010 18:42 23,5 C 23,3 C 3,8 UV-I 1,4 C 47 % 39 % 40 % 1018,2 hPa 0,0 l/m 4,0 km/h (1 Bft) 0 min 4,5 km/h (1 Bft)
14.06.2010 18:44 23,5 C 23,3 C 3,8 UV-I 1,2 C 47 % 39 % 34 % 1018,2 hPa 0,0 l/m 4,4 km/h (1 Bft) 0 min 12,2 km/h (2 Bft)
14.06.2010 18:46 23,5 C 23,3 C 3,8 UV-I 1,2 C 47 % 39 % 34 % 1018,2 hPa 0,0 l/m 4,4 km/h (1 Bft) 0 min 12,6 km/h (3 Bft)
14.06.2010 18:48 23,5 C 23,3 C 3,8 UV-I 1,1 C 47 % 39 % 31 % 1018,2 hPa 0,0 l/m 5,6 km/h (1 Bft) 0 min 14,5 km/h (3 Bft)
14.06.2010 18:50 23,5 C 23,2 C 3,8 UV-I 1,2 C 47 % 39 % 34 % 1018,2 hPa 0,0 l/m 5,6 km/h (1 Bft) 0 min 14,5 km/h (3 Bft)
14.06.2010 18:52 23,5 C 23,2 C 3,8 UV-I 1,1 C 47 % 40 % 31 % 1017,9 hPa 0,0 l/m 8,0 km/h (2 Bft) 0 min 3,9 km/h (1 Bft)
14.06.2010 18:54 23,5 C 23,2 C 3,8 UV-I 1,1 C 47 % 40 % 31 % 1017,9 hPa 0,0 l/m 8,4 km/h (2 Bft) 0 min 6,4 km/h (2 Bft)
14.06.2010 18:56 23,5 C 23,2 C 3,5 UV-I 1,1 C 47 % 40 % 31 % 1017,9 hPa 0,0 l/m 7,6 km/h (2 Bft) 0 min 7,4 km/h (2 Bft)
14.06.2010 18:58 23,4 C 23,2 C 3,5 UV-I 1,2 C 47 % 39 % 34 % 1017,9 hPa 0,0 l/m 7,6 km/h (2 Bft) 0 min 15,1 km/h (3 Bft)
14.06.2010 19:00 23,4 C 23,3 C 3,5 UV-I 1,0 C 47 % 40 % 29 % 1017,9 hPa 0,0 l/m 6,4 km/h (2 Bft) 0 min 6,4 km/h (2 Bft)
14.06.2010 19:02 23,4 C 23,3 C 3,4 UV-I 1,0 C 47 % 41 % 29 % 1017,9 hPa 0,0 l/m 5,2 km/h (1 Bft) 0 min 0,0 km/h (0 Bft)
14.06.2010 19:04 23,4 C 23,2 C 3,4 UV-I 1,1 C 47 % 40 % 31 % 1017,9 hPa 0,0 l/m 5,6 km/h (1 Bft) 0 min 5,8 km/h (2 Bft)
14.06.2010 19:06 23,4 C 23,3 C 3,3 UV-I 0,9 C 47 % 40 % 26 % 1017,9 hPa 0,0 l/m 5,2 km/h (1 Bft) 0 min 5,8 km/h (2 Bft)
14.06.2010 19:08 23,4 C 23,3 C 3,3 UV-I 0,9 C 47 % 40 % 26 % 1017,9 hPa 0,0 l/m 4,8 km/h (1 Bft) 0 min 5,5 km/h (1 Bft)
14.06.2010 19:10 23,4 C 23,2 C 3,3 UV-I 1,0 C 47 % 40 % 29 % 1017,9 hPa 0,0 l/m 4,8 km/h (1 Bft) 0 min 5,5 km/h (1 Bft)
14.06.2010 19:12 23,4 C 23,2 C 3,0 UV-I 0,8 C 47 % 40 % 23 % 1018,1 hPa 0,0 l/m 3,2 km/h (1 Bft) 0 min 4,2 km/h (1 Bft)
14.06.2010 19:14 23,4 C 23,2 C 3,0 UV-I 0,6 C 47 % 41 % 17 % 1018,1 hPa 0,0 l/m 2,8 km/h (1 Bft) 0 min 0,0 km/h (0 Bft)
14.06.2010 19:16 23,4 C 23,2 C 3,0 UV-I 0,5 C 47 % 41 % 14 % 1018,1 hPa 0,0 l/m 2,8 km/h (1 Bft) 0 min 6,1 km/h (2 Bft)
14.06.2010 19:18 23,4 C 23,1 C 3,0 UV-I 0,5 C 47 % 40 % 14 % 1018,1 hPa 0,0 l/m 2,8 km/h (1 Bft) 0 min 7,4 km/h (2 Bft)
14.06.2010 19:20 23,2 C 23,1 C 3,0 UV-I 0,4 C 47 % 40 % 11 % 1018,1 hPa 0,0 l/m 2,8 km/h (1 Bft) 0 min 5,1 km/h (1 Bft)
14.06.2010 19:22 23,2 C 23,1 C 2,9 UV-I 0,4 C 47 % 39 % 11 % 1018,1 hPa 0,0 l/m 4,0 km/h (1 Bft) 0 min 3,5 km/h (1 Bft)
14.06.2010 19:24 23,2 C 23,0 C 2,9 UV-I 0,3 C 47 % 39 % 9 % 1018,1 hPa 0,0 l/m 5,6 km/h (1 Bft) 0 min 13,5 km/h (3 Bft)
14.06.2010 19:26 23,2 C 22,9 C 2,7 UV-I 0,2 C 47 % 40 % 6 % 1018,1 hPa 0,0 l/m 7,2 km/h (2 Bft) 0 min 10,3 km/h (2 Bft)
14.06.2010 19:28 23,3 C 22,9 C 2,7 UV-I 0,1 C 47 % 39 % 3 % 1018,1 hPa 0,0 l/m 8,4 km/h (2 Bft) 0 min 9,0 km/h (2 Bft)
14.06.2010 19:30 23,3 C 22,9 C 2,7 UV-I 0,1 C 47 % 39 % 3 % 1018,1 hPa 0,0 l/m 8,4 km/h (2 Bft) 0 min 9,0 km/h (2 Bft)
14.06.2010 19:32 23,3 C 22,8 C 2,6 UV-I 0,0 C 47 % 40 % 0 % 1018,1 hPa 0,0 l/m 8,8 km/h (2 Bft) 0 min 9,3 km/h (2 Bft)
14.06.2010 19:34 23,2 C 22,8 C 2,6 UV-I 0,0 C 48 % 40 % 0 % 1018,1 hPa 0,0 l/m 8,8 km/h (2 Bft) 0 min 3,5 km/h (1 Bft)
14.06.2010 19:36 23,2 C 22,8 C 2,6 UV-I 0,0 C 47 % 40 % 0 % 1018,1 hPa 0,0 l/m 7,2 km/h (2 Bft) 0 min 0,0 km/h (0 Bft)
14.06.2010 19:38 23,2 C 22,8 C 2,6 UV-I 0,0 C 47 % 40 % 0 % 1018,1 hPa 0,0 l/m 5,6 km/h (1 Bft) 0 min 0,0 km/h (0 Bft)
14.06.2010 19:40 23,2 C 22,8 C 2,6 UV-I 0,0 C 47 % 41 % 0 % 1018,1 hPa 0,0 l/m 3,6 km/h (1 Bft) 0 min 4,8 km/h (1 Bft)
14.06.2010 19:42 23,2 C 22,8 C 2,5 UV-I 0,0 C 47 % 40 % 0 % 1018,1 hPa 0,0 l/m 2,4 km/h (1 Bft) 0 min 3,9 km/h (1 Bft)
14.06.2010 19:44 23,2 C 22,7 C 2,5 UV-I 0,0 C 47 % 41 % 0 % 1018,1 hPa 0,0 l/m 1,6 km/h (1 Bft) 0 min 3,2 km/h (1 Bft)
14.06.2010 19:46 23,2 C 22,7 C 2,3 UV-I 0,0 C 48 % 41 % 0 % 1018,1 hPa 0,0 l/m 1,6 km/h (1 Bft) 0 min 0,0 km/h (0 Bft)
14.06.2010 19:48 23,2 C 22,7 C 2,3 UV-I 0,0 C 48 % 41 % 0 % 1018,1 hPa 0,0 l/m 2,4 km/h (1 Bft) 0 min 5,5 km/h (1 Bft)
14.06.2010 19:50 23,2 C 22,6 C 2,3 UV-I 0,0 C 47 % 41 % 0 % 1018,1 hPa 0,0 l/m 2,4 km/h (1 Bft) 0 min 5,5 km/h (1 Bft)
14.06.2010 19:52 23,2 C 22,6 C 2,2 UV-I 0,0 C 48 % 41 % 0 % 1017,9 hPa 0,0 l/m 2,8 km/h (1 Bft) 0 min 0,0 km/h (0 Bft)
14.06.2010 19:54 23,2 C 22,6 C 2,2 UV-I 0,0 C 48 % 41 % 0 % 1017,9 hPa 0,0 l/m 2,4 km/h (1 Bft) 0 min 5,5 km/h (1 Bft)
14.06.2010 19:56 23,2 C 22,6 C 2,1 UV-I 0,0 C 48 % 41 % 0 % 1017,9 hPa 0,0 l/m 2,8 km/h (1 Bft) 0 min 4,2 km/h (1 Bft)
14.06.2010 19:58 23,1 C 22,6 C 2,1 UV-I 0,0 C 48 % 42 % 0 % 1017,9 hPa 0,0 l/m 2,4 km/h (1 Bft) 0 min 0,0 km/h (0 Bft)
14.06.2010 20:00 23,1 C 22,5 C 2,1 UV-I 0,0 C 48 % 42 % 0 % 1017,9 hPa 0,0 l/m 1,6 km/h (1 Bft) 0 min 0,0 km/h (0 Bft)
14.06.2010 20:02 23,1 C 22,4 C 2,0 UV-I 0,0 C 48 % 42 % 0 % 1017,9 hPa 0,0 l/m 2,4 km/h (1 Bft) 0 min 5,1 km/h (1 Bft)
14.06.2010 20:04 23,1 C 22,4 C 2,0 UV-I 0,0 C 48 % 42 % 0 % 1017,9 hPa 0,0 l/m 2,8 km/h (1 Bft) 0 min 8,7 km/h (2 Bft)
14.06.2010 20:06 23,1 C 22,4 C 1,9 UV-I 0,0 C 48 % 42 % 0 % 1017,9 hPa 0,0 l/m 2,0 km/h (1 Bft) 0 min 0,0 km/h (0 Bft)
14.06.2010 20:08 23,1 C 22,3 C 1,9 UV-I 0,0 C 48 % 42 % 0 % 1017,9 hPa 0,0 l/m 1,6 km/h (1 Bft) 0 min 0,0 km/h (0 Bft)
14.06.2010 20:10 23,1 C 22,2 C 1,9 UV-I 0,0 C 48 % 42 % 0 % 1017,9 hPa 0,0 l/m 1,6 km/h (1 Bft) 0 min 0,0 km/h (0 Bft)
14.06.2010 20:12 23,1 C 22,3 C 1,8 UV-I 0,0 C 48 % 42 % 0 % 1018,1 hPa 0,0 l/m 1,6 km/h (1 Bft) 0 min 3,9 km/h (1 Bft)
14.06.2010 20:14 23,0 C 22,3 C 1,8 UV-I 0,0 C 48 % 43 % 0 % 1018,1 hPa 0,0 l/m 0,8 km/h (0 Bft) 0 min 0,0 km/h (0 Bft)
14.06.2010 20:16 23,0 C 22,3 C 1,6 UV-I 0,0 C 48 % 43 % 0 % 1018,1 hPa 0,0 l/m 0,4 km/h (0 Bft) 0 min 0,0 km/h (0 Bft)
14.06.2010 20:18 23,0 C 22,1 C 1,6 UV-I 0,0 C 48 % 43 % 0 % 1018,1 hPa 0,0 l/m 0,4 km/h (0 Bft) 0 min 3,2 km/h (1 Bft)
14.06.2010 20:20 23,0 C 22,1 C 1,6 UV-I 0,0 C 48 % 43 % 0 % 1018,1 hPa 0,0 l/m 0,8 km/h (0 Bft) 0 min 4,5 km/h (1 Bft)
14.06.2010 20:22 23,0 C 22,1 C 1,6 UV-I 0,0 C 48 % 42 % 0 % 1018,1 hPa 0,0 l/m 1,2 km/h (1 Bft) 0 min 3,2 km/h (1 Bft)
14.06.2010 20:24 23,0 C 22,0 C 1,6 UV-I 0,0 C 48 % 42 % 0 % 1018,1 hPa 0,0 l/m 1,2 km/h (1 Bft) 0 min 0,0 km/h (0 Bft)
14.06.2010 20:26 23,0 C 22,0 C 1,4 UV-I 0,0 C 48 % 43 % 0 % 1018,1 hPa 0,0 l/m 1,6 km/h (1 Bft) 0 min 3,5 km/h (1 Bft)
14.06.2010 20:28 23,0 C 22,0 C 1,4 UV-I 0,0 C 48 % 43 % 0 % 1018,1 hPa 0,0 l/m 1,6 km/h (1 Bft) 0 min 0,0 km/h (0 Bft)
14.06.2010 20:30 23,0 C 21,9 C 1,4 UV-I 0,0 C 48 % 43 % 0 % 1018,1 hPa 0,0 l/m 1,6 km/h (1 Bft) 0 min 0,0 km/h (0 Bft)
14.06.2010 20:32 23,0 C 21,9 C 1,3 UV-I 0,0 C 48 % 44 % 0 % 1018,2 hPa 0,0 l/m 0,8 km/h (0 Bft) 0 min 0,0 km/h (0 Bft)
14.06.2010 20:34 23,0 C 21,8 C 1,3 UV-I 0,0 C 48 % 44 % 0 % 1018,2 hPa 0,0 l/m 0,4 km/h (0 Bft) 0 min 0,0 km/h (0 Bft)
14.06.2010 20:36 22,9 C 21,8 C 1,2 UV-I 0,0 C 48 % 44 % 0 % 1018,2 hPa 0,0 l/m 0,4 km/h (0 Bft) 0 min 0,0 km/h (0 Bft)
14.06.2010 20:38 22,9 C 21,8 C 1,2 UV-I 0,0 C 48 % 44 % 0 % 1018,2 hPa 0,0 l/m 0,4 km/h (0 Bft) 0 min 0,0 km/h (0 Bft)
14.06.2010 20:40 22,9 C 21,7 C 1,2 UV-I 0,0 C 48 % 44 % 0 % 1018,2 hPa 0,0 l/m 0,4 km/h (0 Bft) 0 min 5,5 km/h (1 Bft)
14.06.2010 20:42 22,9 C 21,7 C 1,1 UV-I 0,0 C 48 % 44 % 0 % 1018,2 hPa 0,0 l/m 0,4 km/h (0 Bft) 0 min 0,0 km/h (0 Bft)
14.06.2010 20:44 22,9 C 21,7 C 1,1 UV-I 0,0 C 48 % 44 % 0 % 1018,2 hPa 0,0 l/m 0,4 km/h (0 Bft) 0 min 0,0 km/h (0 Bft)
14.06.2010 20:46 22,9 C 21,6 C 1,0 UV-I 0,0 C 48 % 44 % 0 % 1018,2 hPa 0,0 l/m 0,8 km/h (0 Bft) 0 min 0,0 km/h (0 Bft)
14.06.2010 20:48 22,9 C 21,5 C 1,0 UV-I 0,0 C 48 % 45 % 0 % 1018,2 hPa 0,0 l/m 0,8 km/h (0 Bft) 0 min 0,0 km/h (0 Bft)
14.06.2010 20:50 22,9 C 21,5 C 1,0 UV-I 0,0 C 48 % 45 % 0 % 1018,2 hPa 0,0 l/m 0,8 km/h (0 Bft) 0 min 0,0 km/h (0 Bft)
14.06.2010 20:52 22,9 C 21,4 C 0,9 UV-I 0,0 C 48 % 45 % 0 % 1018,4 hPa 0,0 l/m 0,8 km/h (0 Bft) 0 min 3,2 km/h (1 Bft)
14.06.2010 20:54 22,8 C 21,3 C 0,9 UV-I 0,0 C 48 % 45 % 0 % 1018,4 hPa 0,0 l/m 1,2 km/h (1 Bft) 0 min 3,2 km/h (1 Bft)
14.06.2010 20:56 22,8 C 21,3 C 0,8 UV-I 0,0 C 48 % 45 % 0 % 1018,4 hPa 0,0 l/m 0,8 km/h (0 Bft) 0 min 3,5 km/h (1 Bft)
14.06.2010 20:58 22,8 C 21,2 C 0,8 UV-I 0,0 C 48 % 45 % 0 % 1018,4 hPa 0,0 l/m 0,8 km/h (0 Bft) 0 min 0,0 km/h (0 Bft)
14.06.2010 21:00 22,8 C 21,3 C 0,8 UV-I 0,0 C 48 % 45 % 0 % 1018,4 hPa 0,0 l/m 0,8 km/h (0 Bft) 0 min 0,0 km/h (0 Bft)
14.06.2010 21:02 22,8 C 21,2 C 0,7 UV-I 0,0 C 48 % 45 % 0 % 1018,4 hPa 0,0 l/m 1,2 km/h (1 Bft) 0 min 0,0 km/h (0 Bft)
14.06.2010 21:04 22,8 C 21,1 C 0,7 UV-I 0,0 C 48 % 46 % 0 % 1018,4 hPa 0,0 l/m 0,8 km/h (0 Bft) 0 min 0,0 km/h (0 Bft)
14.06.2010 21:06 22,8 C 21,1 C 0,5 UV-I 0,0 C 48 % 46 % 0 % 1018,4 hPa 0,0 l/m 0,8 km/h (0 Bft) 0 min 0,0 km/h (0 Bft)
14.06.2010 21:08 22,8 C 21,1 C 0,5 UV-I 0,0 C 48 % 46 % 0 % 1018,4 hPa 0,0 l/m 0,4 km/h (0 Bft) 0 min 0,0 km/h (0 Bft)
14.06.2010 21:10 22,7 C 21,0 C 0,5 UV-I 0,0 C 49 % 46 % 0 % 1018,4 hPa 0,0 l/m 0,4 km/h (0 Bft) 0 min 0,0 km/h (0 Bft)
14.06.2010 21:12 22,7 C 20,9 C 0,4 UV-I 0,0 C 49 % 46 % 0 % 1018,4 hPa 0,0 l/m 0,4 km/h (0 Bft) 0 min 0,0 km/h (0 Bft)
14.06.2010 21:14 22,7 C 20,8 C 0,4 UV-I 0,0 C 49 % 47 % 0 % 1018,4 hPa 0,0 l/m 0,0 km/h (0 Bft) 0 min 0,0 km/h (0 Bft)
14.06.2010 21:16 22,7 C 20,8 C 0,4 UV-I 0,0 C 49 % 47 % 0 % 1018,4 hPa 0,0 l/m 0,4 km/h (0 Bft) 0 min 0,0 km/h (0 Bft)
14.06.2010 21:18 22,7 C 20,7 C 0,4 UV-I 0,0 C 49 % 46 % 0 % 1018,4 hPa 0,0 l/m 0,4 km/h (0 Bft) 0 min 3,5 km/h (1 Bft)
14.06.2010 21:20 22,7 C 20,7 C 0,4 UV-I 0,0 C 49 % 46 % 0 % 1018,4 hPa 0,0 l/m 0,4 km/h (0 Bft) 0 min 3,9 km/h (1 Bft)
14.06.2010 21:22 22,6 C 20,7 C 0,4 UV-I 0,0 C 49 % 46 % 0 % 1018,4 hPa 0,0 l/m 0,8 km/h (0 Bft) 0 min 5,5 km/h (1 Bft)
14.06.2010 21:24 22,6 C 20,7 C 0,4 UV-I 0,0 C 49 % 47 % 0 % 1018,4 hPa 0,0 l/m 2,4 km/h (1 Bft) 0 min 7,7 km/h (2 Bft)
14.06.2010 21:26 22,6 C 20,5 C 0,3 UV-I 0,0 C 49 % 47 % 0 % 1018,4 hPa 0,0 l/m 3,2 km/h (1 Bft) 0 min 5,5 km/h (1 Bft)
14.06.2010 21:28 22,6 C 20,4 C 0,3 UV-I 0,0 C 49 % 47 % 0 % 1018,4 hPa 0,0 l/m 3,6 km/h (1 Bft) 0 min 3,9 km/h (1 Bft)
14.06.2010 21:30 22,6 C 20,5 C 0,3 UV-I 0,0 C 49 % 48 % 0 % 1018,4 hPa 0,0 l/m 3,6 km/h (1 Bft) 0 min 3,9 km/h (1 Bft)
14.06.2010 21:32 22,6 C 20,4 C 0,2 UV-I 0,0 C 49 % 48 % 0 % 1018,7 hPa 0,0 l/m 4,8 km/h (1 Bft) 0 min 6,4 km/h (2 Bft)
14.06.2010 21:34 22,6 C 20,3 C 0,2 UV-I 0,0 C 49 % 48 % 0 % 1018,7 hPa 0,0 l/m 4,8 km/h (1 Bft) 0 min 9,0 km/h (2 Bft)
14.06.2010 21:36 22,5 C 20,2 C 0,2 UV-I 0,0 C 49 % 48 % 0 % 1018,7 hPa 0,0 l/m 4,8 km/h (1 Bft) 0 min 6,8 km/h (2 Bft)
14.06.2010 21:38 22,5 C 20,1 C 0,2 UV-I 0,0 C 49 % 48 % 0 % 1018,7 hPa 0,0 l/m 5,6 km/h (1 Bft) 0 min 9,0 km/h (2 Bft)
14.06.2010 21:40 22,5 C 20,1 C 0,2 UV-I 0,0 C 49 % 48 % 0 % 1018,7 hPa 0,0 l/m 6,8 km/h (2 Bft) 0 min 7,1 km/h (2 Bft)
14.06.2010 21:42 22,5 C 20,1 C 0,0 UV-I 0,0 C 49 % 48 % 0 % 1018,7 hPa 0,0 l/m 7,6 km/h (2 Bft) 0 min 10,9 km/h (2 Bft)
14.06.2010 21:44 22,5 C 20,0 C 0,0 UV-I 0,0 C 49 % 48 % 0 % 1018,7 hPa 0,0 l/m 8,0 km/h (2 Bft) 0 min 8,4 km/h (2 Bft)
14.06.2010 21:46 22,5 C 20,1 C 0,1 UV-I 0,0 C 49 % 48 % 0 % 1018,7 hPa 0,0 l/m 7,6 km/h (2 Bft) 0 min 5,8 km/h (2 Bft)
14.06.2010 21:48 22,4 C 20,0 C 0,1 UV-I 0,0 C 49 % 49 % 0 % 1018,7 hPa 0,0 l/m 6,8 km/h (2 Bft) 0 min 4,8 km/h (1 Bft)
14.06.2010 21:50 22,4 C 19,9 C 0,1 UV-I 0,0 C 49 % 49 % 0 % 1018,7 hPa 0,0 l/m 6,8 km/h (2 Bft) 0 min 4,8 km/h (1 Bft)
14.06.2010 21:52 22,4 C 19,9 C 0,0 UV-I 0,0 C 49 % 49 % 0 % 1019,1 hPa 0,0 l/m 6,4 km/h (2 Bft) 0 min 5,5 km/h (1 Bft)
14.06.2010 21:54 22,4 C 19,7 C 0,0 UV-I 0,0 C 49 % 50 % 0 % 1019,1 hPa 0,0 l/m 5,6 km/h (1 Bft) 0 min 0,0 km/h (0 Bft)
14.06.2010 21:56 22,4 C 19,6 C 0,0 UV-I 0,0 C 49 % 50 % 0 % 1019,1 hPa 0,0 l/m 4,8 km/h (1 Bft) 0 min 3,9 km/h (1 Bft)
14.06.2010 21:58 22,4 C 19,7 C 0,0 UV-I 0,0 C 49 % 50 % 0 % 1019,1 hPa 0,0 l/m 4,8 km/h (1 Bft) 0 min 4,2 km/h (1 Bft)
14.06.2010 22:00 22,4 C 19,6 C 0,0 UV-I 0,0 C 49 % 51 % 0 % 1019,1 hPa 0,0 l/m 4,8 km/h (1 Bft) 0 min 6,1 km/h (2 Bft)
14.06.2010 22:02 22,4 C 19,5 C 0,0 UV-I 0,0 C 49 % 51 % 0 % 1019,1 hPa 0,0 l/m 4,4 km/h (1 Bft) 0 min 5,1 km/h (1 Bft)
14.06.2010 22:04 22,4 C 19,4 C 0,0 UV-I 0,0 C 49 % 51 % 0 % 1019,1 hPa 0,0 l/m 3,6 km/h (1 Bft) 0 min 0,0 km/h (0 Bft)
14.06.2010 22:06 22,2 C 19,3 C 0,0 UV-I 0,0 C 49 % 52 % 0 % 1019,1 hPa 0,0 l/m 4,0 km/h (1 Bft) 0 min 3,5 km/h (1 Bft)
14.06.2010 22:08 22,2 C 19,2 C 0,0 UV-I 0,0 C 49 % 52 % 0 % 1019,1 hPa 0,0 l/m 4,0 km/h (1 Bft) 0 min 5,1 km/h (1 Bft)
14.06.2010 22:10 22,3 C 19,3 C 0,0 UV-I 0,0 C 49 % 52 % 0 % 1019,1 hPa 0,0 l/m 4,0 km/h (1 Bft) 0 min 5,1 km/h (1 Bft)
14.06.2010 22:12 22,3 C 19,2 C 0,0 UV-I 0,0 C 50 % 52 % 0 % 1019,4 hPa 0,0 l/m 4,4 km/h (1 Bft) 0 min 6,1 km/h (2 Bft)
14.06.2010 22:14 22,3 C 19,2 C 0,0 UV-I 0,0 C 50 % 53 % 0 % 1019,4 hPa 0,0 l/m 4,8 km/h (1 Bft) 0 min 6,8 km/h (2 Bft)
14.06.2010 22:16 22,2 C 19,1 C 0,0 UV-I 0,0 C 50 % 53 % 0 % 1019,4 hPa 0,0 l/m 6,0 km/h (2 Bft) 0 min 7,1 km/h (2 Bft)
14.06.2010 22:18 22,2 C 19,1 C 0,0 UV-I 0,0 C 50 % 53 % 0 % 1019,4 hPa 0,0 l/m 6,4 km/h (2 Bft) 0 min 3,2 km/h (1 Bft)
14.06.2010 22:20 22,2 C 19,0 C 0,0 UV-I 0,0 C 50 % 53 % 0 % 1019,4 hPa 0,0 l/m 6,8 km/h (2 Bft) 0 min 6,1 km/h (2 Bft)
14.06.2010 22:22 22,2 C 19,1 C 0,0 UV-I 0,0 C 50 % 53 % 0 % 1019,4 hPa 0,0 l/m 6,8 km/h (2 Bft) 0 min 8,0 km/h (2 Bft)
14.06.2010 22:24 22,2 C 19,1 C 0,0 UV-I 0,0 C 50 % 54 % 0 % 1019,4 hPa 0,0 l/m 6,8 km/h (2 Bft) 0 min 4,2 km/h (1 Bft)
14.06.2010 22:26 22,2 C 19,1 C 0,0 UV-I 0,0 C 50 % 54 % 0 % 1019,4 hPa 0,0 l/m 6,0 km/h (2 Bft) 0 min 4,2 km/h (1 Bft)
14.06.2010 22:28 22,2 C 18,9 C 0,0 UV-I 0,0 C 50 % 54 % 0 % 1019,4 hPa 0,0 l/m 5,6 km/h (1 Bft) 0 min 4,8 km/h (1 Bft)
14.06.2010 22:30 22,2 C 18,9 C 0,0 UV-I 0,0 C 50 % 54 % 0 % 1019,4 hPa 0,0 l/m 5,6 km/h (1 Bft) 0 min 4,8 km/h (1 Bft)
14.06.2010 22:32 22,2 C 18,9 C 0,0 UV-I 0,0 C 50 % 54 % 0 % 1019,6 hPa 0,0 l/m 4,4 km/h (1 Bft) 0 min 0,0 km/h (0 Bft)
14.06.2010 22:34 22,2 C 18,9 C 0,0 UV-I 0,0 C 50 % 55 % 0 % 1019,6 hPa 0,0 l/m 4,0 km/h (1 Bft) 0 min 0,0 km/h (0 Bft)
14.06.2010 22:36 22,1 C 18,9 C 0,0 UV-I 0,0 C 50 % 55 % 0 % 1019,6 hPa 0,0 l/m 4,4 km/h (1 Bft) 0 min 6,1 km/h (2 Bft)
14.06.2010 22:38 22,1 C 18,8 C 0,0 UV-I 0,0 C 50 % 55 % 0 % 1019,6 hPa 0,0 l/m 4,4 km/h (1 Bft) 0 min 5,1 km/h (1 Bft)
14.06.2010 22:42 22,1 C 18,8 C 0,0 UV-I 0,0 C 50 % 55 % 0 % 1019,6 hPa 0,0 l/m 5,2 km/h (1 Bft) 0 min 10,0 km/h (2 Bft)
14.06.2010 22:44 22,1 C 18,8 C 0,0 UV-I 0,0 C 50 % 55 % 0 % 1019,6 hPa 0,0 l/m 6,0 km/h (2 Bft) 0 min 7,1 km/h (2 Bft)
14.06.2010 22:46 22,1 C 18,8 C 0,0 UV-I 0,0 C 50 % 56 % 0 % 1019,6 hPa 0,0 l/m 6,4 km/h (2 Bft) 0 min 4,8 km/h (1 Bft)
14.06.2010 22:48 22,1 C 18,7 C 0,0 UV-I 0,0 C 50 % 56 % 0 % 1019,6 hPa 0,0 l/m 6,8 km/h (2 Bft) 0 min 8,0 km/h (2 Bft)
14.06.2010 22:50 22,1 C 18,7 C 0,0 UV-I 0,0 C 50 % 56 % 0 % 1019,6 hPa 0,0 l/m 6,8 km/h (2 Bft) 0 min 8,0 km/h (2 Bft)
14.06.2010 22:52 22,1 C 18,7 C 0,0 UV-I 0,0 C 50 % 56 % 0 % 1019,9 hPa 0,0 l/m 7,6 km/h (2 Bft) 0 min 6,1 km/h (2 Bft)
14.06.2010 22:54 22,1 C 18,7 C 0,0 UV-I 0,0 C 50 % 56 % 0 % 1019,9 hPa 0,0 l/m 8,4 km/h (2 Bft) 0 min 11,6 km/h (2 Bft)
14.06.2010 22:56 22,0 C 18,7 C 0,0 UV-I 0,0 C 50 % 56 % 0 % 1019,9 hPa 0,0 l/m 8,4 km/h (2 Bft) 0 min 10,0 km/h (2 Bft)
14.06.2010 22:58 22,0 C 18,7 C 0,0 UV-I 0,0 C 50 % 56 % 0 % 1019,9 hPa 0,0 l/m 8,4 km/h (2 Bft) 0 min 8,0 km/h (2 Bft)
14.06.2010 23:00 22,0 C 18,7 C 0,0 UV-I 0,0 C 50 % 56 % 0 % 1019,9 hPa 0,0 l/m 8,0 km/h (2 Bft) 0 min 9,7 km/h (2 Bft)
14.06.2010 23:02 22,0 C 18,7 C 0,0 UV-I 0,0 C 50 % 56 % 0 % 1019,9 hPa 0,0 l/m 7,2 km/h (2 Bft) 0 min 0,0 km/h (0 Bft)
14.06.2010 23:04 22,0 C 18,6 C 0,0 UV-I 0,0 C 50 % 56 % 0 % 1019,9 hPa 0,0 l/m 6,8 km/h (2 Bft) 0 min 11,6 km/h (2 Bft)
14.06.2010 23:06 22,0 C 18,6 C 0,0 UV-I 0,0 C 50 % 56 % 0 % 1019,9 hPa 0,0 l/m 6,8 km/h (2 Bft) 0 min 8,7 km/h (2 Bft)
14.06.2010 23:08 22,0 C 18,7 C 0,0 UV-I 0,0 C 50 % 57 % 0 % 1019,9 hPa 0,0 l/m 6,8 km/h (2 Bft) 0 min 4,5 km/h (1 Bft)
14.06.2010 23:10 22,0 C 18,6 C 0,0 UV-I 0,0 C 50 % 57 % 0 % 1019,9 hPa 0,0 l/m 6,8 km/h (2 Bft) 0 min 4,5 km/h (1 Bft)
14.06.2010 23:12 22,0 C 18,5 C 0,0 UV-I 0,0 C 50 % 57 % 0 % 1020,0 hPa 0,0 l/m 7,6 km/h (2 Bft) 0 min 7,7 km/h (2 Bft)
14.06.2010 23:14 22,0 C 18,5 C 0,0 UV-I 0,0 C 50 % 57 % 0 % 1020,0 hPa 0,0 l/m 7,6 km/h (2 Bft) 0 min 4,5 km/h (1 Bft)
14.06.2010 23:16 22,0 C 18,5 C 0,0 UV-I 0,0 C 50 % 57 % 0 % 1020,0 hPa 0,0 l/m 7,2 km/h (2 Bft) 0 min 6,8 km/h (2 Bft)
14.06.2010 23:18 22,0 C 18,5 C 0,0 UV-I 0,0 C 51 % 57 % 0 % 1020,0 hPa 0,0 l/m 7,2 km/h (2 Bft) 0 min 5,8 km/h (2 Bft)
14.06.2010 23:20 22,0 C 18,4 C 0,0 UV-I 0,0 C 50 % 58 % 0 % 1020,0 hPa 0,0 l/m 7,6 km/h (2 Bft) 0 min 6,8 km/h (2 Bft)
14.06.2010 23:22 22,0 C 18,4 C 0,0 UV-I 0,0 C 50 % 58 % 0 % 1020,0 hPa 0,0 l/m 6,8 km/h (2 Bft) 0 min 6,8 km/h (2 Bft)
14.06.2010 23:24 22,0 C 18,3 C 0,0 UV-I 0,0 C 51 % 58 % 0 % 1020,0 hPa 0,0 l/m 6,8 km/h (2 Bft) 0 min 6,4 km/h (2 Bft)
14.06.2010 23:26 22,0 C 18,3 C 0,0 UV-I 0,0 C 50 % 58 % 0 % 1020,0 hPa 0,0 l/m 7,6 km/h (2 Bft) 0 min 9,3 km/h (2 Bft)
14.06.2010 23:28 22,0 C 18,3 C 0,0 UV-I 0,0 C 51 % 58 % 0 % 1020,0 hPa 0,0 l/m 8,0 km/h (2 Bft) 0 min 9,0 km/h (2 Bft)
14.06.2010 23:30 21,9 C 18,2 C 0,0 UV-I 0,0 C 50 % 58 % 0 % 1020,0 hPa 0,0 l/m 8,0 km/h (2 Bft) 0 min 9,0 km/h (2 Bft)
14.06.2010 23:32 22,0 C 18,2 C 0,0 UV-I 0,0 C 51 % 58 % 0 % 1020,2 hPa 0,0 l/m 9,2 km/h (2 Bft) 0 min 11,6 km/h (2 Bft)
14.06.2010 23:34 21,9 C 18,3 C 0,0 UV-I 0,0 C 51 % 59 % 0 % 1020,2 hPa 0,0 l/m 8,8 km/h (2 Bft) 0 min 8,0 km/h (2 Bft)
14.06.2010 23:36 21,9 C 18,2 C 0,0 UV-I 0,0 C 51 % 59 % 0 % 1020,2 hPa 0,0 l/m 8,8 km/h (2 Bft) 0 min 8,0 km/h (2 Bft)
14.06.2010 23:38 21,9 C 18,1 C 0,0 UV-I 0,0 C 51 % 59 % 0 % 1020,2 hPa 0,0 l/m 8,8 km/h (2 Bft) 0 min 10,6 km/h (2 Bft)
14.06.2010 23:40 21,9 C 18,0 C 0,0 UV-I 0,0 C 51 % 59 % 0 % 1020,2 hPa 0,0 l/m 8,8 km/h (2 Bft) 0 min 10,0 km/h (2 Bft)
14.06.2010 23:42 21,9 C 18,0 C 0,0 UV-I 0,0 C 51 % 59 % 0 % 1020,2 hPa 0,0 l/m 9,2 km/h (2 Bft) 0 min 7,4 km/h (2 Bft)
14.06.2010 23:44 21,9 C 18,0 C 0,0 UV-I 0,0 C 51 % 59 % 0 % 1020,2 hPa 0,0 l/m 9,6 km/h (2 Bft) 0 min 10,0 km/h (2 Bft)
14.06.2010 23:46 21,9 C 18,1 C 0,0 UV-I 0,0 C 51 % 59 % 0 % 1020,2 hPa 0,0 l/m 10,0 km/h (2 Bft) 0 min 10,3 km/h (2 Bft)
14.06.2010 23:48 21,9 C 18,0 C 0,0 UV-I 0,0 C 51 % 59 % 0 % 1020,2 hPa 0,0 l/m 10,4 km/h (2 Bft) 0 min 11,3 km/h (2 Bft)
14.06.2010 23:50 21,9 C 17,9 C 0,0 UV-I 0,0 C 51 % 59 % 0 % 1020,2 hPa 0,0 l/m 10,4 km/h (2 Bft) 0 min 11,3 km/h (2 Bft)
14.06.2010 23:54 21,9 C 17,9 C 0,0 UV-I 0,0 C 51 % 60 % 0 % 1020,5 hPa 0,0 l/m 8,8 km/h (2 Bft) 0 min 8,7 km/h (2 Bft)
14.06.2010 23:56 21,9 C 17,8 C 0,0 UV-I 0,0 C 51 % 60 % 0 % 1020,5 hPa 0,0 l/m 8,0 km/h (2 Bft) 0 min 10,3 km/h (2 Bft)
14.06.2010 23:58 21,9 C 17,8 C 0,0 UV-I 0,0 C 51 % 60 % 0 % 1020,5 hPa 0,0 l/m 8,0 km/h (2 Bft) 0 min 8,7 km/h (2 Bft)
_ Min-Zeit 05:53 05:58 00:00 00:00 18:12 14:52 00:00 05:53 - 00:00 - 00:00
Minimum _ 18,9 C 11,7 C 0,0 UV-I 0,0 C 47 % 37 % 0 % 1013,9 hPa - 0,0 km/h (0 Bft) - 0,0 km/h (0 Bft)
_ Max-Zeit 18:12 14:02 10:06 11:56 05:28 05:58 08:15 23:54 00:00 16:56 08:15 17:10
Maximum _ 23,5 C 25,0 C 15,4 UV-I 6,7 C 55 % 84 % 100 % 1020,5 hPa 0,0 l/m 14,9 km/h
W-SW (3 Bft)
2 min 35,4 km/h
S (5 Bft)
Durchschnitt _ 21,0 C 18,4 C 4,5 UV-I 2,1 C 52 % 60 % 42 % 1016,5 hPa #0,0 l/m 3,6 km/h (1 Bft) #7:51 h 4,4 km/h (1 Bft)
© 2012 W. Hausmann